GEFSNE_prec_meanprec_156.txt.gz
QPF
0.05 0.06 0.07 0.07 0.07 0.06 0.07 0.09 0.10 0.09 0.08 0.08 0.07 0.07 0.06 0.05 0.05 0.04 0.05 0.08 0.09 0.09 0.07 0.07 0.06 0.04 0.05 0.05 0.04 0.03 0.03 0.03 0.03 0.03 0.04 0.04 0.04 0.04
0.04 0.05 0.07 0.08 0.08 0.08 0.08 0.09 0.11 0.11 0.10 0.08 0.07 0.06 0.06 0.05 0.06 0.05 0.03 0.05 0.06 0.06 0.06 0.07 0.06 0.05 0.05 0.05 0.04 0.03 0.03 0.04 0.05 0.05 0.05 0.05 0.05 0.04
0.04 0.04 0.05 0.06 0.08 0.08 0.09 0.09 0.10 0.11 0.10 0.09 0.08 0.08 0.08 0.07 0.07 0.05 0.03 0.02 0.03 0.06 0.07 0.07 0.06 0.06 0.05 0.05 0.05 0.04 0.05 0.06 0.07 0.08 0.08 0.09 0.07 0.05
0.05 0.06 0.05 0.05 0.06 0.07 0.09 0.10 0.10 0.12 0.10 0.08 0.08 0.08 0.07 0.08 0.07 0.05 0.03 0.02 0.02 0.05 0.06 0.07 0.07 0.07 0.06 0.06 0.06 0.05 0.06 0.09 0.12 0.12 0.12 0.11 0.08 0.06
0.04 0.04 0.03 0.04 0.05 0.05 0.06 0.08 0.09 0.09 0.10 0.09 0.06 0.06 0.07 0.09 0.07 0.05 0.04 0.04 0.03 0.04 0.04 0.05 0.06 0.07 0.07 0.07 0.06 0.05 0.04 0.05 0.06 0.07 0.08 0.08 0.06 0.04
0.03 0.03 0.03 0.03 0.04 0.04 0.04 0.05 0.06 0.07 0.08 0.08 0.05 0.07 0.08 0.09 0.06 0.08 0.06 0.05 0.03 0.03 0.04 0.03 0.03 0.03 0.03 0.04 0.04 0.04 0.03 0.03 0.03 0.04 0.04 0.04 0.03 0.02
0.02 0.03 0.02 0.02 0.02 0.02 0.02 0.04 0.05 0.06 0.07 0.08 0.07 0.07 0.07 0.07 0.06 0.07 0.07 0.06 0.05 0.04 0.03 0.03 0.02 0.02 0.02 0.03 0.04 0.04 0.04 0.03 0.02 0.02 0.02 0.01 0.01 0.01
0.02 0.02 0.01 0.01 0.01 0.01 0.01 0.02 0.03 0.04 0.05 0.06 0.06 0.05 0.07 0.06 0.05 0.05 0.06 0.06 0.06 0.05 0.04 0.03 0.02 0.02 0.02 0.02 0.02 0.03 0.04 0.03 0.03 0.03 0.02 0.02 0.01 0.01
0.02 0.02 0.02 0.01 0.02 0.02 0.02 0.01 0.01 0.02 0.03 0.04 0.05 0.05 0.04 0.04 0.05 0.06 0.06 0.06 0.06 0.05 0.04 0.04 0.03 0.02 0.01 0.01 0.01 0.01 0.01 0.02 0.02 0.02 0.02 0.01 0.00 0.00
0.02 0.02 0.02 0.02 0.02 0.03 0.03 0.02 0.02 0.02 0.02 0.04 0.05 0.06 0.05 0.05 0.06 0.07 0.06 0.05 0.05 0.04 0.04 0.04 0.03 0.02 0.01 0.01 0.01 0.01 0.01 0.01 0.01 0.01 0.01 0.00 0.00 0.00
0.02 0.02 0.02 0.03 0.02 0.01 0.03 0.03 0.02 0.02 0.02 0.02 0.03 0.06 0.07 0.05 0.05 0.05 0.06 0.06 0.06 0.04 0.03 0.03 0.02 0.01 0.01 0.01 0.01 0.01 0.01 0.01 0.00 0.00 0.00 0.00 0.00 0.00
0.02 0.02 0.02 0.02 0.01 0.02 0.04 0.05 0.04 0.03 0.03 0.03 0.03 0.04 0.05 0.06 0.05 0.05 0.05 0.05 0.04 0.03 0.02 0.02 0.02 0.02 0.02 0.01 0.01 0.01 0.01 0.00 0.00 0.00 0.00 0.00 0.00 0.00
0.04 0.04 0.02 0.01 0.01 0.01 0.03 0.06 0.05 0.04 0.04 0.04 0.05 0.05 0.05 0.06 0.04 0.03 0.03 0.04 0.03 0.02 0.02 0.02 0.02 0.02 0.02 0.02 0.01 0.01 0.01 0.01 0.01 0.00 0.00 0.00 0.00 0.00
0.03 0.03 0.01 0.00 0.01 0.01 0.02 0.03 0.02 0.02 0.04 0.05 0.06 0.05 0.05 0.04 0.03 0.02 0.02 0.03 0.03 0.02 0.02 0.02 0.03 0.03 0.03 0.03 0.03 0.02 0.01 0.01 0.01 0.01 0.01 0.01 0.00 0.00
0.02 0.01 0.01 0.00 0.00 0.00 0.01 0.01 0.01 0.02 0.04 0.05 0.05 0.04 0.04 0.03 0.02 0.02 0.02 0.03 0.03 0.02 0.01 0.02 0.03 0.03 0.03 0.03 0.02 0.02 0.02 0.01 0.01 0.01 0.01 0.01 0.01 0.01
0.02 0.01 0.01 0.01 0.01 0.01 0.01 0.01 0.01 0.02 0.03 0.03 0.03 0.03 0.04 0.04 0.03 0.03 0.02 0.02 0.03 0.04 0.03 0.02 0.03 0.03 0.03 0.03 0.02 0.02 0.02 0.02 0.01 0.01 0.01 0.01 0.01 0.01
0.01 0.01 0.01 0.02 0.02 0.02 0.02 0.02 0.02 0.02 0.02 0.02 0.02 0.03 0.03 0.03 0.04 0.03 0.02 0.02 0.02 0.02 0.02 0.02 0.02 0.03 0.03 0.03 0.02 0.02 0.02 0.01 0.01 0.01 0.01 0.01 0.01 0.01
0.01 0.01 0.01 0.02 0.03 0.03 0.04 0.04 0.03 0.02 0.02 0.02 0.03 0.02 0.03 0.03 0.02 0.02 0.03 0.02 0.02 0.02 0.02 0.02 0.02 0.03 0.03 0.02 0.01 0.01 0.02 0.02 0.01 0.01 0.01 0.01 0.01 0.01
0.01 0.02 0.02 0.02 0.02 0.03 0.03 0.03 0.03 0.03 0.03 0.02 0.02 0.02 0.03 0.03 0.03 0.02 0.02 0.02 0.02 0.01 0.01 0.01 0.02 0.02 0.02 0.02 0.01 0.01 0.01 0.01 0.01 0.01 0.01 0.01 0.01 0.01
0.01 0.02 0.03 0.03 0.03 0.03 0.02 0.02 0.02 0.03 0.03 0.03 0.03 0.03 0.03 0.02 0.02 0.02 0.01 0.01 0.01 0.01 0.01 0.01 0.02 0.01 0.01 0.01 0.01 0.00 0.00 0.01 0.01 0.01 0.01 0.01 0.01 0.01
0.01 0.02 0.03 0.03 0.03 0.03 0.02 0.02 0.02 0.02 0.02 0.02 0.03 0.03 0.03 0.02 0.01 0.01 0.01 0.01 0.00 0.01 0.01 0.01 0.01 0.01 0.00 0.01 0.01 0.01 0.01 0.01 0.01 0.01 0.01 0.01 0.01 0.01
0.02 0.03 0.02 0.01 0.02 0.03 0.03 0.03 0.02 0.01 0.01 0.01 0.02 0.03 0.02 0.02 0.01 0.01 0.01 0.01 0.01 0.00 0.00 0.00 0.00 0.00 0.00 0.01 0.01 0.01 0.01 0.00 0.00 0.00 0.00 0.00 0.00 0.00
0.02 0.02 0.01 0.01 0.02 0.02 0.03 0.03 0.02 0.01 0.01 0.01 0.01 0.02 0.02 0.02 0.01 0.01 0.01 0.01 0.00 0.00 0.00 0.00 0.00 0.00 0.00 0.00 0.01 0.00 0.00 0.00 0.00 0.00 0.00 0.00 0.00 0.00

GEFSNE_prec_meanprec_162.txt.gz
QPF
0.03 0.02 0.02 0.02 0.02 0.03 0.03 0.03 0.03 0.02 0.02 0.04 0.05 0.06 0.07 0.06 0.06 0.04 0.03 0.03 0.03 0.03 0.03 0.03 0.03 0.04 0.04 0.04 0.05 0.05 0.06 0.07 0.08 0.07 0.06 0.04 0.04 0.05
0.03 0.03 0.02 0.02 0.02 0.03 0.03 0.04 0.04 0.03 0.02 0.03 0.05 0.05 0.06 0.06 0.05 0.05 0.04 0.04 0.03 0.04 0.04 0.04 0.04 0.04 0.04 0.05 0.05 0.06 0.06 0.05 0.06 0.07 0.06 0.05 0.04 0.04
0.03 0.03 0.02 0.02 0.02 0.03 0.05 0.05 0.07 0.08 0.07 0.06 0.05 0.04 0.04 0.06 0.06 0.06 0.06 0.04 0.03 0.02 0.03 0.04 0.04 0.05 0.04 0.05 0.05 0.05 0.05 0.05 0.05 0.06 0.06 0.06 0.06 0.06
0.03 0.02 0.02 0.02 0.03 0.03 0.03 0.03 0.04 0.05 0.07 0.08 0.10 0.09 0.08 0.10 0.10 0.09 0.07 0.05 0.04 0.03 0.03 0.04 0.05 0.06 0.06 0.06 0.06 0.06 0.06 0.06 0.05 0.06 0.06 0.06 0.07 0.08
0.02 0.01 0.01 0.02 0.02 0.02 0.02 0.02 0.03 0.03 0.04 0.05 0.08 0.10 0.13 0.18 0.17 0.11 0.07 0.05 0.04 0.03 0.04 0.04 0.04 0.05 0.06 0.07 0.07 0.07 0.07 0.07 0.05 0.05 0.06 0.06 0.06 0.06
0.01 0.01 0.01 0.01 0.01 0.02 0.02 0.02 0.02 0.03 0.03 0.04 0.04 0.05 0.08 0.12 0.13 0.08 0.05 0.04 0.04 0.02 0.02 0.03 0.03 0.03 0.04 0.05 0.06 0.07 0.07 0.07 0.07 0.05 0.04 0.04 0.04 0.03
0.01 0.01 0.01 0.01 0.01 0.01 0.01 0.01 0.02 0.03 0.03 0.04 0.04 0.04 0.05 0.07 0.06 0.04 0.05 0.04 0.03 0.02 0.02 0.02 0.02 0.02 0.02 0.03 0.04 0.05 0.07 0.07 0.07 0.05 0.04 0.03 0.02 0.02
0.01 0.00 0.00 0.01 0.00 0.01 0.01 0.01 0.01 0.01 0.02 0.02 0.03 0.03 0.03 0.03 0.03 0.03 0.03 0.03 0.03 0.02 0.02 0.02 0.02 0.02 0.01 0.01 0.02 0.03 0.04 0.05 0.06 0.06 0.05 0.04 0.03 0.02
0.00 0.00 0.01 0.01 0.01 0.01 0.01 0.02 0.01 0.01 0.01 0.02 0.02 0.03 0.03 0.03 0.02 0.02 0.03 0.02 0.02 0.02 0.02 0.03 0.03 0.02 0.01 0.01 0.01 0.01 0.02 0.04 0.05 0.04 0.04 0.04 0.03 0.02
0.00 0.00 0.01 0.01 0.01 0.01 0.01 0.01 0.01 0.02 0.02 0.02 0.01 0.01 0.01 0.02 0.03 0.02 0.03 0.02 0.01 0.02 0.03 0.04 0.03 0.02 0.01 0.01 0.01 0.01 0.01 0.02 0.03 0.03 0.03 0.03 0.02 0.02
0.00 0.00 0.01 0.02 0.01 0.01 0.01 0.01 0.01 0.01 0.01 0.01 0.01 0.01 0.01 0.02 0.02 0.03 0.03 0.02 0.02 0.02 0.03 0.04 0.03 0.02 0.01 0.01 0.01 0.02 0.02 0.02 0.02 0.02 0.02 0.02 0.02 0.02
0.01 0.00 0.00 0.01 0.01 0.00 0.01 0.02 0.01 0.01 0.01 0.01 0.01 0.01 0.02 0.02 0.02 0.02 0.03 0.03 0.02 0.02 0.02 0.03 0.04 0.03 0.02 0.01 0.01 0.01 0.01 0.02 0.02 0.02 0.01 0.01 0.01 0.01
0.00 0.00 0.00 0.00 0.00 0.01 0.01 0.01 0.02 0.03 0.02 0.01 0.01 0.01 0.01 0.02 0.03 0.02 0.02 0.03 0.03 0.02 0.01 0.02 0.03 0.04 0.02 0.01 0.01 0.01 0.01 0.01 0.01 0.01 0.01 0.01 0.01 0.00
0.00 0.00 0.01 0.01 0.01 0.01 0.01 0.02 0.03 0.03 0.03 0.03 0.02 0.02 0.02 0.03 0.04 0.03 0.02 0.02 0.02 0.02 0.02 0.01 0.02 0.03 0.03 0.01 0.01 0.01 0.01 0.01 0.01 0.01 0.00 0.01 0.01 0.00
0.00 0.00 0.01 0.01 0.01 0.01 0.01 0.02 0.02 0.03 0.03 0.02 0.03 0.03 0.02 0.03 0.06 0.05 0.03 0.02 0.02 0.02 0.01 0.01 0.01 0.01 0.02 0.02 0.01 0.01 0.01 0.00 0.00 0.00 0.00 0.00 0.00 0.00
0.00 0.00 0.00 0.01 0.01 0.01 0.00 0.01 0.01 0.02 0.03 0.03 0.03 0.03 0.03 0.03 0.04 0.05 0.04 0.03 0.02 0.01 0.01 0.01 0.01 0.01 0.02 0.02 0.02 0.02 0.01 0.00 0.00 0.00 0.00 0.00 0.00 0.00
0.00 0.00 0.00 0.00 0.01 0.01 0.01 0.01 0.01 0.02 0.02 0.02 0.02 0.03 0.03 0.03 0.03 0.03 0.03 0.03 0.02 0.02 0.02 0.02 0.02 0.02 0.01 0.02 0.02 0.02 0.01 0.01 0.00 0.00 0.00 0.00 0.00 0.00
0.00 0.00 0.01 0.01 0.01 0.01 0.01 0.01 0.01 0.01 0.01 0.01 0.02 0.02 0.02 0.03 0.03 0.03 0.03 0.02 0.02 0.02 0.03 0.03 0.03 0.02 0.02 0.02 0.01 0.02 0.01 0.01 0.01 0.01 0.01 0.01 0.00 0.01
0.01 0.01 0.01 0.02 0.01 0.01 0.01 0.01 0.01 0.02 0.02 0.02 0.02 0.03 0.03 0.03 0.03 0.03 0.03 0.02 0.02 0.03 0.03 0.04 0.03 0.02 0.03 0.02 0.01 0.01 0.01 0.01 0.01 0.01 0.02 0.01 0.01 0.00
0.01 0.01 0.01 0.01 0.01 0.01 0.01 0.02 0.02 0.03 0.03 0.03 0.03 0.03 0.03 0.03 0.03 0.04 0.03 0.02 0.02 0.02 0.03 0.04 0.03 0.02 0.02 0.02 0.01 0.01 0.01 0.01 0.01 0.01 0.01 0.01 0.01 0.01
0.01 0.00 0.00 0.00 0.00 0.01 0.01 0.01 0.01 0.01 0.02 0.02 0.03 0.03 0.03 0.03 0.04 0.04 0.03 0.03 0.02 0.02 0.02 0.03 0.02 0.02 0.02 0.03 0.02 0.01 0.01 0.01 0.01 0.01 0.01 0.01 0.01 0.01
0.00 0.00 0.00 0.00 0.00 0.00 0.01 0.01 0.01 0.01 0.01 0.01 0.02 0.03 0.03 0.03 0.04 0.03 0.02 0.02 0.02 0.02 0.02 0.02 0.02 0.01 0.01 0.02 0.02 0.01 0.01 0.01 0.01 0.01 0.01 0.01 0.01 0.01
0.01 0.01 0.00 0.00 0.00 0.00 0.01 0.01 0.01 0.01 0.01 0.01 0.01 0.02 0.03 0.03 0.04 0.03 0.01 0.01 0.01 0.01 0.02 0.02 0.01 0.01 0.01 0.02 0.02 0.01 0.01 0.01 0.02 0.01 0.01 0.01 0.01 0.01

GEFSNE_prec_meanprec_168.txt.gz
QPF
0.05 0.04 0.04 0.03 0.03 0.02 0.03 0.03 0.03 0.02 0.02 0.02 0.04 0.04 0.05 0.05 0.04 0.03 0.03 0.04 0.03 0.03 0.03 0.04 0.04 0.03 0.04 0.05 0.05 0.05 0.04 0.04 0.04 0.04 0.06 0.07 0.08 0.08
0.04 0.05 0.05 0.04 0.03 0.03 0.03 0.03 0.04 0.04 0.04 0.04 0.05 0.06 0.07 0.07 0.07 0.04 0.04 0.05 0.05 0.05 0.04 0.04 0.04 0.03 0.04 0.05 0.06 0.05 0.04 0.04 0.04 0.04 0.05 0.06 0.08 0.08
0.04 0.05 0.06 0.04 0.04 0.04 0.02 0.02 0.03 0.04 0.04 0.04 0.05 0.07 0.07 0.07 0.07 0.06 0.05 0.05 0.06 0.06 0.05 0.05 0.05 0.04 0.04 0.04 0.05 0.04 0.03 0.04 0.05 0.05 0.05 0.06 0.06 0.07
0.05 0.06 0.05 0.05 0.05 0.05 0.04 0.03 0.03 0.03 0.03 0.06 0.08 0.09 0.08 0.08 0.07 0.06 0.06 0.05 0.04 0.05 0.05 0.05 0.05 0.05 0.05 0.04 0.03 0.03 0.02 0.02 0.04 0.05 0.05 0.06 0.06 0.06
0.03 0.03 0.05 0.06 0.04 0.02 0.02 0.02 0.02 0.02 0.02 0.02 0.05 0.08 0.08 0.09 0.12 0.10 0.08 0.07 0.06 0.05 0.05 0.04 0.04 0.03 0.04 0.03 0.03 0.03 0.03 0.03 0.02 0.03 0.04 0.06 0.07 0.07
0.02 0.03 0.03 0.03 0.02 0.01 0.01 0.01 0.01 0.01 0.02 0.02 0.03 0.05 0.07 0.07 0.11 0.11 0.10 0.08 0.07 0.05 0.04 0.04 0.03 0.02 0.03 0.02 0.03 0.03 0.03 0.04 0.04 0.04 0.04 0.05 0.06 0.06
0.01 0.01 0.01 0.01 0.01 0.01 0.01 0.01 0.01 0.01 0.02 0.03 0.05 0.04 0.04 0.04 0.05 0.06 0.10 0.11 0.10 0.07 0.04 0.03 0.02 0.01 0.02 0.02 0.03 0.03 0.03 0.04 0.04 0.04 0.04 0.05 0.05 0.05
0.01 0.01 0.00 0.01 0.01 0.01 0.01 0.01 0.01 0.01 0.01 0.03 0.05 0.04 0.03 0.03 0.04 0.06 0.07 0.08 0.08 0.06 0.04 0.03 0.02 0.02 0.01 0.01 0.03 0.04 0.04 0.04 0.04 0.05 0.05 0.06 0.05 0.05
0.01 0.01 0.00 0.01 0.01 0.01 0.01 0.01 0.02 0.01 0.01 0.02 0.02 0.02 0.02 0.02 0.03 0.04 0.04 0.05 0.05 0.05 0.03 0.03 0.04 0.03 0.02 0.02 0.02 0.03 0.04 0.04 0.04 0.05 0.06 0.07 0.07 0.06
0.01 0.00 0.00 0.01 0.01 0.01 0.02 0.02 0.01 0.01 0.01 0.02 0.02 0.02 0.02 0.01 0.02 0.02 0.03 0.03 0.03 0.04 0.04 0.03 0.03 0.03 0.02 0.01 0.01 0.02 0.03 0.04 0.04 0.04 0.05 0.07 0.08 0.07
0.01 0.00 0.00 0.01 0.01 0.00 0.00 0.01 0.01 0.01 0.01 0.01 0.01 0.01 0.01 0.01 0.01 0.01 0.02 0.03 0.03 0.02 0.03 0.05 0.04 0.03 0.03 0.02 0.02 0.02 0.02 0.02 0.03 0.03 0.04 0.05 0.07 0.07
0.01 0.01 0.00 0.01 0.01 0.01 0.00 0.00 0.00 0.00 0.01 0.01 0.01 0.01 0.01 0.01 0.01 0.01 0.02 0.03 0.03 0.02 0.02 0.04 0.07 0.06 0.03 0.03 0.02 0.01 0.02 0.02 0.02 0.03 0.03 0.05 0.05 0.05
0.01 0.01 0.00 0.00 0.00 0.00 0.00 0.00 0.00 0.00 0.01 0.01 0.01 0.01 0.01 0.01 0.01 0.01 0.01 0.02 0.02 0.03 0.02 0.02 0.03 0.07 0.06 0.03 0.03 0.02 0.02 0.02 0.02 0.02 0.03 0.04 0.04 0.03
0.01 0.00 0.00 0.00 0.00 0.00 0.00 0.00 0.01 0.01 0.01 0.02 0.02 0.01 0.01 0.01 0.01 0.01 0.01 0.01 0.01 0.02 0.03 0.03 0.03 0.04 0.06 0.05 0.03 0.03 0.02 0.03 0.03 0.02 0.02 0.03 0.03 0.03
0.00 0.00 0.00 0.00 0.00 0.00 0.00 0.01 0.01 0.01 0.01 0.01 0.01 0.01 0.02 0.01 0.01 0.01 0.01 0.01 0.02 0.02 0.02 0.03 0.02 0.03 0.04 0.05 0.05 0.04 0.04 0.03 0.03 0.03 0.03 0.02 0.02 0.02
0.00 0.00 0.00 0.00 0.00 0.00 0.00 0.01 0.01 0.01 0.01 0.02 0.02 0.02 0.03 0.03 0.02 0.02 0.02 0.02 0.02 0.02 0.02 0.02 0.02 0.03 0.03 0.04 0.05 0.05 0.05 0.04 0.03 0.02 0.02 0.02 0.02 0.01
0.01 0.01 0.01 0.00 0.00 0.00 0.00 0.00 0.01 0.01 0.01 0.02 0.02 0.02 0.02 0.03 0.03 0.02 0.02 0.03 0.03 0.03 0.02 0.02 0.02 0.02 0.02 0.03 0.04 0.04 0.04 0.04 0.03 0.02 0.02 0.02 0.01 0.01
0.01 0.01 0.01 0.01 0.00 0.00 0.00 0.00 0.00 0.00 0.01 0.01 0.01 0.01 0.02 0.03 0.03 0.03 0.03 0.03 0.03 0.03 0.02 0.03 0.03 0.04 0.03 0.04 0.03 0.03 0.03 0.03 0.03 0.02 0.01 0.01 0.01 0.01
0.01 0.01 0.01 0.01 0.00 0.00 0.00 0.01 0.01 0.01 0.01 0.01 0.01 0.01 0.02 0.02 0.02 0.03 0.04 0.04 0.03 0.02 0.02 0.02 0.03 0.04 0.04 0.04 0.04 0.02 0.03 0.03 0.02 0.01 0.01 0.02 0.01 0.01
0.00 0.00 0.00 0.00 0.00 0.00 0.00 0.01 0.01 0.01 0.01 0.01 0.01 0.01 0.01 0.01 0.01 0.02 0.03 0.03 0.03 0.02 0.01 0.02 0.02 0.03 0.03 0.03 0.03 0.02 0.02 0.02 0.02 0.02 0.01 0.01 0.02 0.01
0.00 0.00 0.00 0.00 0.00 0.00 0.00 0.00 0.00 0.01 0.01 0.01 0.02 0.02 0.01 0.01 0.01 0.02 0.02 0.02 0.02 0.02 0.02 0.02 0.02 0.02 0.03 0.03 0.03 0.03 0.03 0.02 0.01 0.01 0.01 0.01 0.01 0.01
0.00 0.00 0.00 0.00 0.00 0.00 0.00 0.00 0.00 0.00 0.01 0.01 0.02 0.02 0.02 0.01 0.01 0.02 0.02 0.02 0.02 0.03 0.02 0.02 0.02 0.03 0.03 0.02 0.02 0.03 0.03 0.02 0.02 0.02 0.01 0.01 0.01 0.01
0.01 0.01 0.01 0.01 0.01 0.00 0.01 0.01 0.00 0.01 0.01 0.01 0.02 0.03 0.03 0.02 0.02 0.02 0.02 0.02 0.02 0.02 0.03 0.04 0.04 0.04 0.04 0.03 0.02 0.02 0.04 0.03 0.02 0.03 0.02 0.01 0.01 0.01

GEFSNE_prec_meanprec_174.txt.gz
QPF
0.08 0.10 0.10 0.08 0.07 0.06 0.05 0.06 0.06 0.05 0.04 0.04 0.04 0.04 0.04 0.04 0.04 0.05 0.05 0.04 0.03 0.03 0.03 0.03 0.06 0.07 0.05 0.05 0.04 0.04 0.03 0.03 0.04 0.05 0.05 0.05 0.07 0.09
0.08 0.10 0.10 0.10 0.09 0.07 0.05 0.06 0.06 0.06 0.06 0.06 0.05 0.05 0.05 0.05 0.06 0.06 0.06 0.05 0.04 0.03 0.03 0.03 0.04 0.05 0.05 0.04 0.04 0.04 0.04 0.04 0.04 0.05 0.05 0.05 0.06 0.07
0.05 0.07 0.10 0.12 0.11 0.09 0.08 0.07 0.08 0.08 0.08 0.07 0.05 0.06 0.05 0.06 0.08 0.09 0.08 0.07 0.06 0.06 0.04 0.03 0.03 0.04 0.05 0.04 0.05 0.05 0.06 0.05 0.04 0.05 0.05 0.06 0.06 0.07
0.05 0.06 0.08 0.10 0.11 0.10 0.10 0.09 0.09 0.08 0.09 0.08 0.08 0.07 0.05 0.06 0.06 0.06 0.07 0.06 0.06 0.07 0.06 0.04 0.03 0.04 0.06 0.06 0.06 0.06 0.05 0.05 0.05 0.04 0.04 0.04 0.04 0.04
0.06 0.08 0.08 0.09 0.10 0.11 0.10 0.08 0.08 0.07 0.07 0.06 0.06 0.05 0.05 0.05 0.06 0.05 0.06 0.06 0.05 0.05 0.05 0.06 0.06 0.05 0.06 0.07 0.05 0.04 0.04 0.03 0.04 0.04 0.05 0.04 0.04 0.03
0.04 0.05 0.05 0.04 0.05 0.06 0.06 0.05 0.05 0.05 0.06 0.06 0.05 0.06 0.06 0.04 0.06 0.06 0.08 0.08 0.06 0.05 0.05 0.06 0.08 0.08 0.07 0.06 0.05 0.04 0.03 0.03 0.04 0.04 0.04 0.03 0.03 0.02
0.03 0.04 0.04 0.03 0.02 0.02 0.03 0.03 0.03 0.05 0.05 0.06 0.07 0.08 0.08 0.06 0.06 0.05 0.06 0.08 0.07 0.07 0.06 0.06 0.06 0.07 0.07 0.06 0.05 0.04 0.04 0.04 0.04 0.04 0.04 0.04 0.03 0.02
0.03 0.03 0.03 0.02 0.02 0.02 0.02 0.02 0.02 0.04 0.04 0.05 0.06 0.07 0.07 0.07 0.07 0.06 0.07 0.07 0.08 0.09 0.10 0.10 0.07 0.08 0.07 0.07 0.04 0.02 0.03 0.03 0.04 0.04 0.04 0.03 0.03 0.03
0.03 0.03 0.02 0.02 0.01 0.01 0.01 0.01 0.01 0.02 0.03 0.04 0.05 0.05 0.05 0.05 0.05 0.06 0.06 0.08 0.08 0.08 0.09 0.11 0.10 0.10 0.09 0.08 0.05 0.03 0.02 0.03 0.03 0.04 0.05 0.03 0.03 0.03
0.02 0.02 0.02 0.02 0.02 0.02 0.02 0.02 0.02 0.02 0.02 0.02 0.03 0.03 0.03 0.03 0.04 0.04 0.05 0.07 0.07 0.05 0.06 0.08 0.08 0.08 0.08 0.07 0.04 0.04 0.03 0.03 0.04 0.04 0.04 0.03 0.02 0.03
0.02 0.02 0.01 0.01 0.01 0.01 0.02 0.02 0.03 0.02 0.01 0.01 0.01 0.01 0.01 0.01 0.01 0.02 0.02 0.04 0.05 0.04 0.05 0.06 0.06 0.05 0.05 0.05 0.04 0.04 0.04 0.03 0.03 0.04 0.04 0.03 0.03 0.02
0.02 0.02 0.01 0.00 0.00 0.00 0.01 0.02 0.02 0.02 0.01 0.01 0.01 0.01 0.00 0.00 0.00 0.01 0.02 0.03 0.04 0.04 0.04 0.04 0.04 0.05 0.05 0.04 0.04 0.03 0.03 0.03 0.02 0.03 0.04 0.03 0.02 0.02
0.03 0.03 0.02 0.01 0.00 0.00 0.00 0.01 0.01 0.00 0.01 0.01 0.02 0.01 0.01 0.02 0.02 0.02 0.02 0.03 0.04 0.04 0.05 0.05 0.05 0.06 0.06 0.05 0.04 0.05 0.04 0.03 0.03 0.02 0.03 0.04 0.03 0.02
0.04 0.03 0.03 0.02 0.01 0.00 0.00 0.00 0.00 0.00 0.01 0.01 0.01 0.02 0.02 0.02 0.02 0.02 0.02 0.03 0.04 0.05 0.05 0.06 0.06 0.06 0.05 0.06 0.06 0.05 0.05 0.04 0.05 0.04 0.03 0.03 0.03 0.03
0.02 0.02 0.01 0.01 0.00 0.00 0.00 0.00 0.00 0.01 0.01 0.02 0.02 0.02 0.02 0.02 0.02 0.02 0.02 0.03 0.03 0.04 0.04 0.05 0.05 0.06 0.06 0.06 0.06 0.06 0.06 0.05 0.05 0.07 0.06 0.03 0.02 0.02
0.02 0.02 0.01 0.01 0.00 0.01 0.01 0.01 0.01 0.01 0.01 0.01 0.01 0.01 0.01 0.02 0.02 0.02 0.02 0.03 0.03 0.03 0.04 0.05 0.05 0.05 0.05 0.05 0.06 0.07 0.07 0.07 0.06 0.07 0.08 0.05 0.03 0.02
0.02 0.02 0.01 0.01 0.01 0.01 0.01 0.01 0.01 0.01 0.01 0.01 0.01 0.01 0.01 0.01 0.02 0.02 0.01 0.02 0.03 0.03 0.04 0.04 0.05 0.05 0.04 0.05 0.05 0.06 0.07 0.07 0.07 0.07 0.08 0.07 0.04 0.02
0.02 0.02 0.01 0.01 0.01 0.01 0.01 0.01 0.01 0.01 0.01 0.01 0.02 0.02 0.02 0.02 0.03 0.03 0.02 0.02 0.03 0.04 0.05 0.05 0.05 0.06 0.05 0.04 0.04 0.06 0.06 0.05 0.06 0.07 0.08 0.07 0.06 0.04
0.01 0.01 0.01 0.01 0.01 0.01 0.01 0.01 0.01 0.01 0.01 0.01 0.02 0.02 0.02 0.02 0.03 0.04 0.04 0.04 0.04 0.04 0.05 0.05 0.05 0.05 0.06 0.05 0.03 0.03 0.04 0.05 0.05 0.06 0.06 0.06 0.05 0.04
0.01 0.01 0.01 0.01 0.01 0.01 0.01 0.01 0.01 0.01 0.01 0.01 0.02 0.02 0.02 0.02 0.03 0.03 0.04 0.04 0.04 0.04 0.06 0.06 0.05 0.05 0.05 0.04 0.03 0.02 0.02 0.04 0.05 0.05 0.04 0.03 0.03 0.03
0.01 0.01 0.02 0.02 0.01 0.01 0.01 0.01 0.01 0.02 0.02 0.02 0.02 0.03 0.03 0.03 0.03 0.03 0.03 0.03 0.03 0.04 0.06 0.06 0.05 0.05 0.05 0.05 0.05 0.03 0.02 0.03 0.03 0.04 0.04 0.04 0.03 0.03
0.01 0.01 0.02 0.03 0.02 0.02 0.02 0.02 0.02 0.03 0.02 0.02 0.03 0.03 0.04 0.04 0.03 0.03 0.03 0.04 0.04 0.05 0.06 0.04 0.04 0.04 0.05 0.06 0.05 0.05 0.04 0.03 0.03 0.03 0.03 0.03 0.03 0.02
0.01 0.01 0.02 0.02 0.02 0.02 0.02 0.02 0.02 0.03 0.02 0.02 0.03 0.03 0.03 0.04 0.04 0.03 0.03 0.03 0.04 0.04 0.05 0.05 0.04 0.04 0.05 0.05 0.05 0.05 0.05 0.05 0.04 0.03 0.03 0.03 0.02 0.02

GEFSNE_prec_meanprec_180.txt.gz
QPF
0.13 0.12 0.10 0.08 0.06 0.06 0.05 0.06 0.06 0.06 0.06 0.07 0.06 0.06 0.09 0.09 0.07 0.03 0.05 0.03 0.02 0.01 0.02 0.02 0.01 0.01 0.01 0.02 0.02 0.03 0.04 0.05 0.06 0.07 0.07 0.07 0.08 0.09
0.12 0.12 0.10 0.08 0.08 0.07 0.07 0.07 0.07 0.08 0.08 0.08 0.08 0.06 0.06 0.06 0.04 0.04 0.06 0.05 0.03 0.02 0.02 0.02 0.02 0.01 0.02 0.02 0.03 0.03 0.03 0.03 0.04 0.05 0.07 0.07 0.06 0.07
0.11 0.11 0.10 0.08 0.07 0.07 0.07 0.07 0.07 0.08 0.09 0.08 0.09 0.08 0.08 0.06 0.06 0.06 0.06 0.06 0.03 0.02 0.02 0.02 0.03 0.03 0.03 0.03 0.04 0.03 0.03 0.03 0.04 0.04 0.05 0.05 0.05 0.06
0.10 0.09 0.08 0.07 0.06 0.07 0.08 0.08 0.08 0.08 0.09 0.09 0.09 0.10 0.10 0.09 0.07 0.07 0.06 0.05 0.04 0.03 0.02 0.02 0.02 0.03 0.04 0.04 0.04 0.05 0.05 0.04 0.03 0.04 0.04 0.04 0.05 0.05
0.08 0.08 0.07 0.07 0.07 0.08 0.09 0.10 0.11 0.10 0.10 0.10 0.09 0.10 0.11 0.11 0.11 0.08 0.06 0.06 0.04 0.03 0.03 0.03 0.03 0.02 0.03 0.04 0.05 0.06 0.06 0.05 0.04 0.03 0.03 0.05 0.06 0.06
0.08 0.08 0.07 0.06 0.05 0.05 0.06 0.08 0.09 0.10 0.10 0.10 0.09 0.09 0.11 0.12 0.12 0.10 0.08 0.08 0.06 0.04 0.03 0.03 0.04 0.06 0.05 0.04 0.05 0.04 0.04 0.04 0.03 0.03 0.03 0.04 0.05 0.06
0.08 0.07 0.05 0.04 0.03 0.03 0.03 0.03 0.05 0.07 0.07 0.08 0.09 0.08 0.09 0.10 0.10 0.09 0.08 0.07 0.06 0.05 0.04 0.03 0.03 0.03 0.05 0.05 0.06 0.04 0.03 0.03 0.03 0.03 0.04 0.05 0.05 0.06
0.05 0.04 0.03 0.03 0.03 0.02 0.02 0.02 0.02 0.03 0.05 0.06 0.08 0.08 0.08 0.08 0.08 0.08 0.08 0.07 0.05 0.06 0.05 0.04 0.04 0.04 0.04 0.06 0.08 0.07 0.05 0.04 0.04 0.04 0.05 0.06 0.06 0.06
0.05 0.04 0.03 0.02 0.02 0.02 0.02 0.03 0.02 0.02 0.03 0.04 0.06 0.06 0.07 0.06 0.07 0.07 0.07 0.06 0.05 0.05 0.06 0.05 0.04 0.04 0.04 0.05 0.07 0.07 0.06 0.05 0.04 0.04 0.05 0.06 0.07 0.07
0.06 0.05 0.04 0.03 0.03 0.03 0.04 0.05 0.04 0.05 0.05 0.04 0.05 0.06 0.05 0.06 0.06 0.06 0.05 0.05 0.05 0.05 0.05 0.05 0.05 0.05 0.05 0.07 0.06 0.06 0.05 0.05 0.04 0.04 0.05 0.05 0.06 0.06
0.03 0.02 0.02 0.02 0.03 0.03 0.04 0.05 0.05 0.05 0.03 0.02 0.02 0.03 0.03 0.03 0.03 0.03 0.03 0.04 0.05 0.04 0.04 0.05 0.04 0.04 0.05 0.07 0.07 0.05 0.05 0.04 0.04 0.04 0.04 0.05 0.05 0.05
0.03 0.02 0.02 0.02 0.02 0.03 0.04 0.05 0.05 0.04 0.03 0.03 0.02 0.02 0.02 0.02 0.01 0.02 0.02 0.03 0.04 0.04 0.04 0.05 0.04 0.04 0.04 0.05 0.06 0.06 0.05 0.05 0.04 0.03 0.04 0.05 0.04 0.04
0.03 0.02 0.02 0.02 0.02 0.02 0.02 0.03 0.02 0.02 0.02 0.03 0.04 0.04 0.04 0.03 0.02 0.03 0.04 0.03 0.04 0.03 0.03 0.04 0.05 0.06 0.06 0.05 0.05 0.06 0.06 0.05 0.04 0.03 0.03 0.05 0.05 0.03
0.02 0.02 0.01 0.01 0.01 0.01 0.01 0.01 0.01 0.01 0.02 0.02 0.03 0.04 0.03 0.03 0.03 0.03 0.03 0.04 0.04 0.02 0.02 0.04 0.05 0.06 0.07 0.07 0.06 0.05 0.05 0.05 0.05 0.05 0.04 0.05 0.07 0.05
0.02 0.01 0.01 0.01 0.01 0.01 0.01 0.00 0.01 0.01 0.02 0.03 0.03 0.03 0.02 0.03 0.03 0.04 0.03 0.04 0.04 0.03 0.01 0.03 0.04 0.05 0.08 0.08 0.07 0.07 0.07 0.06 0.05 0.07 0.07 0.05 0.06 0.08
0.02 0.01 0.01 0.01 0.01 0.01 0.01 0.02 0.02 0.02 0.02 0.02 0.02 0.02 0.02 0.02 0.03 0.03 0.04 0.04 0.04 0.03 0.02 0.03 0.04 0.06 0.06 0.06 0.07 0.08 0.09 0.08 0.07 0.07 0.08 0.09 0.07 0.08
0.01 0.02 0.03 0.03 0.03 0.03 0.02 0.03 0.03 0.03 0.03 0.03 0.03 0.02 0.02 0.02 0.02 0.03 0.03 0.03 0.04 0.04 0.04 0.03 0.04 0.05 0.05 0.06 0.07 0.07 0.09 0.10 0.08 0.07 0.09 0.08 0.07 0.06
0.01 0.02 0.03 0.03 0.03 0.03 0.02 0.02 0.02 0.02 0.02 0.02 0.02 0.03 0.03 0.03 0.02 0.02 0.02 0.03 0.03 0.04 0.04 0.04 0.05 0.07 0.07 0.06 0.05 0.07 0.08 0.08 0.08 0.08 0.08 0.07 0.06 0.05
0.02 0.03 0.05 0.05 0.04 0.03 0.02 0.02 0.02 0.02 0.03 0.02 0.02 0.03 0.03 0.04 0.03 0.03 0.03 0.03 0.02 0.02 0.02 0.03 0.05 0.08 0.09 0.08 0.04 0.04 0.05 0.06 0.08 0.09 0.08 0.07 0.05 0.05
0.03 0.03 0.04 0.04 0.03 0.02 0.02 0.02 0.03 0.03 0.04 0.03 0.03 0.03 0.04 0.04 0.04 0.03 0.03 0.03 0.03 0.03 0.03 0.03 0.05 0.08 0.10 0.09 0.07 0.05 0.03 0.04 0.06 0.08 0.08 0.07 0.05 0.05
0.02 0.02 0.03 0.03 0.02 0.02 0.02 0.02 0.02 0.03 0.03 0.03 0.03 0.03 0.04 0.03 0.03 0.03 0.03 0.03 0.04 0.04 0.05 0.05 0.05 0.05 0.07 0.09 0.07 0.07 0.05 0.04 0.05 0.05 0.06 0.08 0.08 0.07
0.01 0.01 0.01 0.01 0.01 0.01 0.01 0.02 0.02 0.02 0.02 0.02 0.02 0.03 0.03 0.03 0.04 0.04 0.04 0.05 0.06 0.06 0.06 0.06 0.06 0.07 0.07 0.08 0.08 0.07 0.07 0.05 0.05 0.05 0.05 0.06 0.07 0.06
0.01 0.01 0.01 0.01 0.01 0.01 0.01 0.02 0.02 0.02 0.03 0.02 0.02 0.03 0.03 0.03 0.04 0.04 0.05 0.05 0.05 0.06 0.07 0.06 0.07 0.08 0.08 0.08 0.08 0.07 0.05 0.05 0.06 0.06 0.04 0.04 0.05 0.04

GEFSNE_prec_meanprec_186.txt.gz
QPF
0.12 0.11 0.10 0.10 0.10 0.09 0.09 0.08 0.07 0.06 0.04 0.03 0.03 0.03 0.04 0.04 0.04 0.04 0.03 0.03 0.03 0.02 0.02 0.02 0.02 0.03 0.03 0.03 0.03 0.03 0.04 0.04 0.04 0.05 0.06 0.06 0.07 0.08
0.11 0.11 0.10 0.10 0.10 0.08 0.07 0.06 0.06 0.06 0.06 0.04 0.03 0.03 0.04 0.04 0.06 0.05 0.04 0.04 0.04 0.02 0.02 0.01 0.02 0.02 0.03 0.03 0.03 0.03 0.03 0.03 0.03 0.03 0.03 0.05 0.06 0.06
0.10 0.10 0.09 0.09 0.08 0.08 0.06 0.04 0.04 0.04 0.05 0.05 0.04 0.04 0.03 0.04 0.06 0.06 0.05 0.05 0.04 0.03 0.02 0.02 0.02 0.02 0.02 0.02 0.03 0.03 0.03 0.02 0.02 0.02 0.03 0.03 0.04 0.05
0.07 0.08 0.09 0.08 0.07 0.06 0.05 0.04 0.04 0.04 0.05 0.05 0.05 0.04 0.03 0.03 0.05 0.06 0.06 0.05 0.04 0.03 0.03 0.03 0.03 0.02 0.02 0.02 0.02 0.03 0.03 0.02 0.02 0.02 0.02 0.02 0.02 0.03
0.07 0.08 0.09 0.07 0.07 0.06 0.05 0.05 0.05 0.06 0.07 0.07 0.06 0.05 0.05 0.04 0.04 0.06 0.09 0.08 0.05 0.04 0.03 0.03 0.03 0.02 0.02 0.02 0.02 0.03 0.03 0.03 0.03 0.03 0.02 0.02 0.02 0.03
0.10 0.09 0.09 0.08 0.07 0.06 0.06 0.05 0.05 0.06 0.07 0.07 0.05 0.05 0.05 0.06 0.06 0.06 0.07 0.08 0.08 0.06 0.05 0.04 0.04 0.03 0.03 0.02 0.03 0.03 0.03 0.04 0.04 0.05 0.04 0.03 0.03 0.03
0.07 0.07 0.07 0.08 0.07 0.07 0.07 0.06 0.05 0.05 0.05 0.05 0.04 0.05 0.05 0.06 0.06 0.05 0.05 0.06 0.06 0.05 0.05 0.04 0.04 0.04 0.04 0.03 0.03 0.03 0.03 0.02 0.02 0.03 0.03 0.03 0.03 0.03
0.05 0.05 0.05 0.04 0.04 0.04 0.04 0.04 0.05 0.05 0.05 0.05 0.04 0.04 0.05 0.06 0.05 0.05 0.05 0.04 0.04 0.04 0.04 0.04 0.04 0.05 0.05 0.05 0.04 0.04 0.03 0.03 0.03 0.03 0.03 0.02 0.02 0.02
0.04 0.05 0.05 0.04 0.04 0.03 0.03 0.04 0.03 0.03 0.04 0.05 0.05 0.05 0.05 0.05 0.04 0.04 0.05 0.04 0.04 0.04 0.04 0.04 0.03 0.03 0.03 0.03 0.04 0.04 0.04 0.05 0.05 0.04 0.03 0.03 0.03 0.03
0.03 0.03 0.03 0.03 0.03 0.03 0.03 0.03 0.03 0.03 0.04 0.04 0.05 0.04 0.04 0.03 0.03 0.03 0.04 0.03 0.03 0.04 0.03 0.04 0.03 0.02 0.01 0.01 0.02 0.01 0.02 0.03 0.04 0.03 0.03 0.02 0.02 0.02
0.03 0.02 0.02 0.03 0.03 0.03 0.03 0.03 0.03 0.04 0.04 0.04 0.04 0.04 0.04 0.03 0.03 0.03 0.03 0.03 0.03 0.02 0.02 0.02 0.02 0.02 0.01 0.01 0.01 0.01 0.01 0.02 0.02 0.02 0.02 0.02 0.02 0.02
0.02 0.02 0.01 0.01 0.03 0.03 0.03 0.04 0.04 0.04 0.04 0.03 0.02 0.02 0.02 0.02 0.02 0.02 0.02 0.02 0.02 0.02 0.01 0.01 0.02 0.01 0.02 0.01 0.01 0.02 0.02 0.02 0.02 0.02 0.02 0.02 0.03 0.04
0.02 0.02 0.02 0.01 0.02 0.03 0.02 0.03 0.03 0.04 0.04 0.03 0.02 0.01 0.02 0.02 0.02 0.01 0.01 0.01 0.01 0.01 0.01 0.01 0.01 0.02 0.02 0.02 0.01 0.01 0.02 0.02 0.02 0.01 0.01 0.03 0.03 0.04
0.01 0.02 0.02 0.01 0.01 0.02 0.02 0.02 0.02 0.02 0.03 0.02 0.02 0.01 0.01 0.01 0.01 0.01 0.01 0.01 0.01 0.01 0.01 0.02 0.02 0.02 0.02 0.02 0.02 0.01 0.02 0.02 0.02 0.02 0.02 0.03 0.04 0.05
0.01 0.02 0.02 0.02 0.01 0.01 0.01 0.02 0.02 0.02 0.02 0.02 0.02 0.02 0.01 0.01 0.01 0.01 0.01 0.01 0.01 0.01 0.01 0.01 0.02 0.03 0.02 0.02 0.02 0.02 0.02 0.03 0.03 0.03 0.04 0.04 0.04 0.05
0.01 0.02 0.02 0.02 0.01 0.01 0.01 0.01 0.02 0.03 0.04 0.03 0.03 0.02 0.02 0.01 0.01 0.01 0.01 0.01 0.02 0.01 0.01 0.01 0.01 0.02 0.02 0.02 0.01 0.01 0.02 0.03 0.04 0.05 0.05 0.06 0.07 0.06
0.01 0.01 0.01 0.01 0.01 0.01 0.01 0.02 0.04 0.04 0.04 0.03 0.02 0.02 0.01 0.01 0.01 0.01 0.02 0.02 0.02 0.02 0.01 0.01 0.01 0.02 0.02 0.02 0.02 0.01 0.02 0.02 0.03 0.04 0.05 0.07 0.08 0.09
0.00 0.00 0.00 0.01 0.01 0.01 0.02 0.03 0.04 0.03 0.02 0.02 0.02 0.02 0.02 0.01 0.01 0.02 0.02 0.02 0.02 0.01 0.01 0.01 0.01 0.02 0.02 0.02 0.02 0.02 0.01 0.02 0.03 0.04 0.05 0.06 0.06 0.06
0.00 0.00 0.00 0.01 0.01 0.01 0.02 0.02 0.02 0.02 0.02 0.01 0.01 0.02 0.02 0.02 0.02 0.02 0.02 0.02 0.01 0.01 0.01 0.01 0.02 0.02 0.02 0.01 0.01 0.01 0.02 0.02 0.02 0.04 0.05 0.06 0.06 0.05
0.01 0.01 0.01 0.01 0.01 0.01 0.01 0.01 0.01 0.02 0.02 0.01 0.01 0.01 0.01 0.01 0.01 0.02 0.02 0.01 0.01 0.01 0.01 0.01 0.02 0.03 0.03 0.02 0.01 0.01 0.02 0.02 0.02 0.02 0.03 0.06 0.07 0.07
0.01 0.01 0.01 0.01 0.01 0.01 0.01 0.01 0.01 0.02 0.01 0.01 0.01 0.01 0.01 0.01 0.01 0.01 0.01 0.01 0.01 0.02 0.02 0.02 0.02 0.03 0.03 0.03 0.02 0.01 0.01 0.02 0.03 0.03 0.03 0.04 0.06 0.07
0.01 0.01 0.01 0.01 0.01 0.01 0.01 0.01 0.01 0.02 0.01 0.01 0.01 0.01 0.01 0.01 0.01 0.01 0.01 0.01 0.02 0.02 0.02 0.01 0.02 0.03 0.03 0.03 0.02 0.02 0.02 0.02 0.03 0.04 0.04 0.04 0.05 0.06
0.01 0.01 0.01 0.01 0.01 0.01 0.01 0.01 0.01 0.02 0.02 0.01 0.02 0.01 0.01 0.01 0.01 0.01 0.01 0.01 0.01 0.02 0.02 0.02 0.02 0.02 0.03 0.03 0.03 0.02 0.03 0.03 0.04 0.04 0.05 0.05 0.05 0.05

GEFSNE_prec_meanprec_192.txt.gz
QPF
0.04 0.05 0.05 0.05 0.06 0.06 0.05 0.04 0.04 0.04 0.05 0.05 0.06 0.08 0.09 0.09 0.07 0.04 0.03 0.03 0.02 0.02 0.02 0.02 0.02 0.02 0.03 0.04 0.04 0.03 0.04 0.05 0.08 0.09 0.10 0.10 0.10 0.09
0.05 0.06 0.09 0.09 0.08 0.08 0.08 0.07 0.06 0.06 0.07 0.08 0.08 0.07 0.09 0.11 0.11 0.07 0.05 0.05 0.03 0.03 0.03 0.02 0.02 0.02 0.02 0.02 0.02 0.04 0.04 0.03 0.04 0.06 0.07 0.07 0.07 0.07
0.07 0.09 0.10 0.09 0.09 0.10 0.10 0.09 0.07 0.06 0.05 0.05 0.05 0.05 0.05 0.06 0.07 0.07 0.06 0.04 0.03 0.03 0.03 0.03 0.03 0.03 0.03 0.03 0.02 0.02 0.04 0.04 0.04 0.03 0.04 0.05 0.05 0.05
0.05 0.07 0.07 0.07 0.07 0.07 0.09 0.10 0.08 0.06 0.05 0.04 0.03 0.04 0.05 0.05 0.04 0.04 0.05 0.05 0.04 0.03 0.03 0.04 0.04 0.04 0.04 0.04 0.04 0.03 0.03 0.04 0.05 0.05 0.04 0.04 0.04 0.03
0.02 0.03 0.03 0.04 0.05 0.05 0.06 0.08 0.08 0.07 0.05 0.05 0.05 0.04 0.05 0.06 0.06 0.05 0.04 0.05 0.04 0.03 0.03 0.03 0.04 0.04 0.04 0.04 0.04 0.04 0.04 0.04 0.04 0.04 0.05 0.05 0.05 0.04
0.02 0.02 0.02 0.03 0.03 0.04 0.04 0.05 0.06 0.07 0.07 0.07 0.06 0.05 0.06 0.06 0.06 0.06 0.06 0.06 0.05 0.04 0.04 0.03 0.03 0.03 0.03 0.04 0.04 0.04 0.05 0.05 0.05 0.04 0.04 0.05 0.05 0.05
0.02 0.02 0.01 0.01 0.01 0.02 0.03 0.04 0.04 0.05 0.06 0.07 0.07 0.06 0.06 0.06 0.06 0.06 0.06 0.06 0.06 0.05 0.05 0.04 0.03 0.03 0.03 0.04 0.06 0.06 0.05 0.05 0.04 0.04 0.04 0.04 0.04 0.05
0.02 0.01 0.01 0.01 0.01 0.02 0.02 0.02 0.03 0.03 0.05 0.06 0.07 0.06 0.06 0.07 0.08 0.07 0.07 0.07 0.07 0.05 0.04 0.05 0.05 0.05 0.04 0.03 0.05 0.06 0.07 0.06 0.05 0.04 0.04 0.04 0.04 0.04
0.02 0.03 0.02 0.01 0.01 0.02 0.03 0.03 0.03 0.04 0.05 0.06 0.07 0.07 0.07 0.08 0.08 0.07 0.07 0.08 0.09 0.08 0.06 0.05 0.05 0.05 0.06 0.06 0.06 0.06 0.06 0.06 0.06 0.05 0.05 0.05 0.05 0.04
0.02 0.03 0.03 0.02 0.01 0.01 0.02 0.02 0.03 0.05 0.05 0.05 0.05 0.05 0.05 0.05 0.06 0.05 0.05 0.06 0.06 0.06 0.05 0.05 0.04 0.03 0.04 0.04 0.05 0.05 0.05 0.05 0.05 0.06 0.06 0.05 0.05 0.05
0.02 0.01 0.01 0.01 0.01 0.01 0.02 0.03 0.04 0.04 0.04 0.05 0.05 0.05 0.06 0.06 0.06 0.05 0.05 0.05 0.05 0.05 0.05 0.04 0.04 0.04 0.03 0.03 0.03 0.05 0.04 0.04 0.04 0.05 0.05 0.05 0.05 0.04
0.01 0.01 0.01 0.01 0.01 0.01 0.01 0.02 0.04 0.03 0.03 0.04 0.04 0.04 0.04 0.05 0.04 0.03 0.03 0.03 0.04 0.04 0.04 0.04 0.03 0.03 0.03 0.02 0.02 0.02 0.03 0.03 0.03 0.03 0.04 0.04 0.05 0.04
0.01 0.01 0.01 0.01 0.01 0.01 0.01 0.02 0.03 0.03 0.03 0.03 0.02 0.03 0.03 0.03 0.03 0.02 0.02 0.02 0.02 0.01 0.01 0.01 0.02 0.02 0.02 0.01 0.01 0.01 0.01 0.01 0.01 0.01 0.01 0.02 0.03 0.04
0.01 0.01 0.01 0.01 0.01 0.02 0.02 0.02 0.03 0.03 0.03 0.03 0.03 0.02 0.02 0.02 0.03 0.02 0.01 0.02 0.02 0.02 0.02 0.01 0.02 0.03 0.03 0.02 0.01 0.01 0.01 0.01 0.00 0.01 0.01 0.01 0.01 0.02
0.01 0.01 0.01 0.02 0.01 0.01 0.02 0.03 0.03 0.03 0.03 0.05 0.05 0.03 0.02 0.02 0.02 0.03 0.02 0.02 0.02 0.02 0.03 0.03 0.02 0.03 0.03 0.03 0.02 0.01 0.01 0.02 0.01 0.01 0.01 0.01 0.01 0.02
0.01 0.01 0.02 0.02 0.01 0.01 0.02 0.03 0.03 0.02 0.04 0.05 0.05 0.04 0.02 0.01 0.02 0.03 0.03 0.02 0.02 0.03 0.03 0.02 0.02 0.02 0.02 0.02 0.02 0.02 0.02 0.03 0.02 0.01 0.01 0.01 0.01 0.02
0.02 0.03 0.03 0.03 0.02 0.01 0.01 0.02 0.03 0.02 0.03 0.04 0.04 0.04 0.03 0.02 0.02 0.02 0.03 0.02 0.02 0.02 0.02 0.02 0.02 0.01 0.01 0.01 0.02 0.02 0.02 0.02 0.02 0.02 0.02 0.02 0.02 0.02
0.02 0.03 0.04 0.03 0.02 0.01 0.01 0.01 0.02 0.02 0.02 0.03 0.03 0.04 0.04 0.03 0.02 0.02 0.02 0.03 0.02 0.02 0.01 0.02 0.02 0.01 0.01 0.01 0.01 0.01 0.01 0.01 0.01 0.02 0.03 0.03 0.03 0.03
0.02 0.02 0.02 0.01 0.01 0.01 0.00 0.01 0.01 0.02 0.02 0.03 0.03 0.04 0.05 0.04 0.03 0.02 0.01 0.02 0.02 0.02 0.02 0.02 0.02 0.01 0.01 0.01 0.00 0.00 0.01 0.01 0.01 0.02 0.03 0.04 0.03 0.03
0.01 0.01 0.01 0.00 0.00 0.00 0.00 0.01 0.02 0.03 0.03 0.03 0.02 0.03 0.04 0.04 0.02 0.01 0.01 0.01 0.01 0.01 0.02 0.02 0.02 0.01 0.02 0.02 0.01 0.00 0.00 0.01 0.01 0.02 0.02 0.02 0.03 0.04
0.01 0.01 0.01 0.01 0.00 0.00 0.01 0.01 0.02 0.02 0.02 0.01 0.01 0.01 0.02 0.02 0.02 0.01 0.00 0.00 0.01 0.01 0.01 0.01 0.01 0.01 0.02 0.02 0.01 0.01 0.01 0.01 0.01 0.01 0.01 0.01 0.02 0.02
0.01 0.01 0.01 0.01 0.00 0.00 0.00 0.01 0.01 0.01 0.01 0.01 0.01 0.01 0.02 0.02 0.01 0.00 0.00 0.00 0.00 0.00 0.00 0.00 0.01 0.01 0.01 0.01 0.01 0.01 0.01 0.01 0.01 0.01 0.02 0.02 0.02 0.02
0.01 0.01 0.01 0.00 0.00 0.00 0.00 0.00 0.01 0.01 0.01 0.01 0.01 0.01 0.01 0.01 0.01 0.01 0.01 0.01 0.01 0.01 0.01 0.01 0.01 0.01 0.01 0.02 0.02 0.02 0.02 0.02 0.02 0.02 0.02 0.03 0.03 0.03

GEFSNE_prec_meanprec_198.txt.gz
QPF
0.04 0.03 0.03 0.03 0.04 0.04 0.05 0.06 0.06 0.05 0.03 0.02 0.03 0.03 0.04 0.05 0.06 0.06 0.06 0.06 0.04 0.03 0.03 0.02 0.02 0.03 0.04 0.04 0.04 0.05 0.06 0.07 0.06 0.05 0.05 0.06 0.06 0.09
0.03 0.04 0.04 0.03 0.04 0.05 0.06 0.06 0.06 0.06 0.04 0.03 0.04 0.04 0.05 0.06 0.08 0.09 0.10 0.10 0.09 0.07 0.06 0.05 0.04 0.04 0.03 0.04 0.04 0.04 0.04 0.05 0.05 0.04 0.04 0.05 0.05 0.06
0.05 0.06 0.05 0.05 0.04 0.05 0.05 0.06 0.06 0.07 0.06 0.04 0.04 0.04 0.04 0.05 0.06 0.07 0.09 0.10 0.12 0.10 0.09 0.09 0.09 0.08 0.06 0.04 0.03 0.03 0.03 0.03 0.04 0.04 0.04 0.04 0.04 0.05
0.04 0.03 0.04 0.04 0.04 0.04 0.04 0.04 0.04 0.06 0.06 0.06 0.05 0.05 0.05 0.05 0.05 0.05 0.06 0.07 0.08 0.08 0.07 0.07 0.07 0.08 0.07 0.05 0.03 0.03 0.03 0.03 0.03 0.03 0.04 0.04 0.03 0.04
0.02 0.03 0.04 0.04 0.04 0.04 0.05 0.04 0.05 0.05 0.07 0.08 0.07 0.06 0.05 0.06 0.07 0.07 0.08 0.09 0.07 0.06 0.06 0.06 0.06 0.06 0.06 0.05 0.04 0.03 0.03 0.03 0.03 0.03 0.03 0.04 0.04 0.04
0.02 0.03 0.03 0.03 0.03 0.03 0.03 0.04 0.05 0.07 0.07 0.09 0.10 0.09 0.07 0.07 0.09 0.10 0.11 0.11 0.10 0.07 0.06 0.05 0.05 0.06 0.05 0.04 0.03 0.03 0.03 0.03 0.03 0.03 0.02 0.03 0.04 0.04
0.02 0.03 0.02 0.02 0.02 0.02 0.02 0.03 0.05 0.06 0.07 0.09 0.10 0.10 0.09 0.09 0.11 0.12 0.12 0.13 0.14 0.13 0.10 0.07 0.06 0.06 0.05 0.04 0.03 0.03 0.03 0.04 0.04 0.05 0.04 0.04 0.04 0.05
0.03 0.02 0.02 0.02 0.01 0.02 0.02 0.01 0.02 0.03 0.05 0.08 0.09 0.09 0.10 0.10 0.11 0.13 0.13 0.13 0.14 0.15 0.15 0.12 0.08 0.07 0.06 0.05 0.04 0.04 0.06 0.07 0.07 0.07 0.07 0.06 0.06 0.06
0.03 0.03 0.02 0.02 0.02 0.02 0.02 0.02 0.01 0.01 0.02 0.04 0.05 0.06 0.07 0.09 0.11 0.11 0.11 0.11 0.11 0.12 0.13 0.13 0.11 0.10 0.07 0.05 0.05 0.04 0.05 0.06 0.08 0.10 0.10 0.11 0.10 0.09
0.02 0.02 0.03 0.03 0.02 0.02 0.01 0.01 0.01 0.02 0.02 0.02 0.04 0.04 0.04 0.06 0.09 0.10 0.10 0.09 0.08 0.08 0.09 0.10 0.09 0.10 0.08 0.07 0.05 0.04 0.04 0.04 0.05 0.07 0.09 0.11 0.13 0.14
0.02 0.02 0.03 0.03 0.03 0.02 0.02 0.03 0.03 0.02 0.01 0.01 0.01 0.02 0.03 0.03 0.04 0.07 0.08 0.08 0.08 0.08 0.07 0.08 0.08 0.09 0.09 0.08 0.06 0.05 0.04 0.04 0.03 0.03 0.04 0.05 0.07 0.09
0.02 0.02 0.03 0.03 0.03 0.02 0.02 0.02 0.02 0.02 0.02 0.01 0.02 0.02 0.02 0.02 0.02 0.04 0.05 0.05 0.04 0.05 0.06 0.06 0.06 0.07 0.08 0.07 0.06 0.06 0.05 0.03 0.03 0.03 0.03 0.03 0.04 0.04
0.04 0.05 0.04 0.04 0.02 0.01 0.01 0.02 0.02 0.02 0.02 0.02 0.03 0.03 0.02 0.03 0.03 0.04 0.04 0.04 0.04 0.04 0.04 0.05 0.05 0.06 0.06 0.06 0.06 0.07 0.07 0.05 0.04 0.04 0.03 0.03 0.03 0.03
0.04 0.03 0.03 0.02 0.01 0.01 0.01 0.01 0.01 0.02 0.03 0.03 0.03 0.03 0.03 0.03 0.03 0.04 0.04 0.05 0.04 0.04 0.04 0.04 0.05 0.06 0.06 0.06 0.06 0.06 0.05 0.05 0.05 0.06 0.06 0.04 0.03 0.03
0.02 0.02 0.01 0.02 0.02 0.02 0.01 0.01 0.01 0.02 0.02 0.02 0.02 0.02 0.02 0.02 0.03 0.03 0.03 0.03 0.03 0.02 0.02 0.03 0.04 0.06 0.06 0.06 0.07 0.08 0.08 0.06 0.05 0.05 0.06 0.05 0.04 0.04
0.02 0.01 0.02 0.04 0.04 0.02 0.02 0.02 0.02 0.01 0.01 0.02 0.02 0.02 0.02 0.02 0.02 0.02 0.02 0.02 0.03 0.03 0.02 0.02 0.03 0.04 0.05 0.05 0.05 0.06 0.07 0.07 0.06 0.06 0.05 0.05 0.06 0.06
0.02 0.02 0.03 0.04 0.03 0.03 0.02 0.01 0.01 0.01 0.01 0.01 0.01 0.01 0.02 0.02 0.02 0.02 0.02 0.02 0.02 0.02 0.03 0.03 0.03 0.03 0.03 0.04 0.06 0.06 0.07 0.07 0.07 0.07 0.07 0.06 0.07 0.07
0.02 0.02 0.02 0.02 0.01 0.01 0.01 0.01 0.01 0.01 0.01 0.02 0.02 0.01 0.01 0.01 0.02 0.02 0.02 0.02 0.02 0.02 0.02 0.03 0.03 0.04 0.04 0.03 0.03 0.05 0.06 0.05 0.05 0.07 0.08 0.08 0.09 0.08
0.02 0.01 0.01 0.01 0.01 0.01 0.01 0.02 0.01 0.01 0.01 0.02 0.02 0.01 0.01 0.01 0.02 0.02 0.02 0.03 0.03 0.03 0.03 0.03 0.03 0.04 0.05 0.05 0.03 0.02 0.03 0.04 0.04 0.05 0.07 0.09 0.09 0.08
0.02 0.01 0.01 0.01 0.01 0.01 0.02 0.02 0.02 0.02 0.02 0.02 0.02 0.02 0.02 0.02 0.02 0.03 0.02 0.02 0.03 0.03 0.03 0.03 0.03 0.04 0.05 0.05 0.05 0.03 0.02 0.02 0.03 0.04 0.05 0.07 0.07 0.05
0.02 0.01 0.01 0.01 0.01 0.02 0.02 0.02 0.02 0.02 0.03 0.03 0.02 0.02 0.02 0.02 0.02 0.02 0.02 0.02 0.02 0.02 0.03 0.03 0.03 0.03 0.03 0.04 0.05 0.04 0.03 0.02 0.02 0.02 0.03 0.05 0.05 0.05
0.02 0.03 0.03 0.03 0.03 0.02 0.02 0.03 0.03 0.03 0.03 0.03 0.03 0.03 0.03 0.03 0.02 0.02 0.02 0.02 0.02 0.02 0.02 0.02 0.02 0.02 0.02 0.03 0.04 0.05 0.04 0.03 0.02 0.01 0.01 0.01 0.02 0.03
0.04 0.04 0.04 0.04 0.05 0.05 0.05 0.04 0.04 0.04 0.04 0.05 0.05 0.06 0.05 0.05 0.04 0.03 0.03 0.03 0.02 0.02 0.02 0.02 0.02 0.02 0.01 0.02 0.03 0.04 0.04 0.03 0.03 0.03 0.02 0.01 0.00 0.01

GEFSNE_prec_meanprec_204.txt.gz
QPF
0.09 0.09 0.06 0.04 0.04 0.04 0.04 0.06 0.07 0.08 0.07 0.07 0.05 0.04 0.05 0.05 0.04 0.05 0.06 0.05 0.03 0.02 0.02 0.02 0.03 0.03 0.03 0.03 0.02 0.02 0.03 0.04 0.06 0.08 0.08 0.07 0.07 0.06
0.08 0.08 0.07 0.04 0.04 0.04 0.05 0.06 0.07 0.07 0.09 0.08 0.06 0.05 0.06 0.03 0.04 0.04 0.04 0.03 0.02 0.02 0.02 0.03 0.02 0.02 0.02 0.02 0.03 0.03 0.03 0.03 0.04 0.05 0.06 0.06 0.06 0.05
0.08 0.06 0.06 0.05 0.06 0.06 0.06 0.06 0.07 0.08 0.08 0.08 0.08 0.07 0.08 0.07 0.07 0.05 0.04 0.05 0.03 0.02 0.02 0.02 0.02 0.02 0.02 0.03 0.04 0.04 0.03 0.03 0.03 0.04 0.04 0.04 0.05 0.04
0.08 0.08 0.07 0.07 0.08 0.07 0.07 0.07 0.06 0.07 0.08 0.07 0.07 0.09 0.08 0.08 0.09 0.09 0.06 0.05 0.05 0.04 0.03 0.03 0.02 0.03 0.03 0.05 0.06 0.05 0.05 0.04 0.04 0.04 0.04 0.04 0.03 0.03
0.08 0.08 0.08 0.08 0.08 0.08 0.07 0.06 0.06 0.06 0.07 0.06 0.06 0.08 0.08 0.08 0.10 0.11 0.10 0.09 0.06 0.07 0.06 0.04 0.03 0.03 0.04 0.04 0.05 0.06 0.06 0.06 0.05 0.04 0.03 0.04 0.03 0.02
0.07 0.06 0.06 0.06 0.06 0.06 0.05 0.05 0.06 0.07 0.07 0.06 0.06 0.06 0.07 0.08 0.10 0.11 0.12 0.12 0.10 0.07 0.08 0.07 0.05 0.05 0.05 0.05 0.05 0.05 0.05 0.05 0.06 0.05 0.04 0.03 0.03 0.03
0.07 0.05 0.04 0.05 0.05 0.04 0.03 0.04 0.05 0.06 0.06 0.07 0.07 0.07 0.07 0.08 0.08 0.09 0.10 0.12 0.14 0.12 0.12 0.11 0.09 0.09 0.09 0.08 0.07 0.05 0.04 0.03 0.04 0.04 0.03 0.03 0.03 0.03
0.07 0.06 0.04 0.04 0.02 0.02 0.02 0.03 0.03 0.04 0.05 0.07 0.07 0.06 0.07 0.07 0.07 0.07 0.08 0.10 0.12 0.13 0.13 0.12 0.11 0.12 0.11 0.09 0.09 0.08 0.06 0.04 0.04 0.03 0.03 0.02 0.02 0.02
0.08 0.07 0.05 0.03 0.02 0.03 0.03 0.03 0.03 0.03 0.04 0.04 0.06 0.05 0.05 0.06 0.08 0.08 0.09 0.11 0.12 0.13 0.13 0.11 0.10 0.11 0.09 0.08 0.10 0.09 0.08 0.06 0.05 0.04 0.03 0.02 0.01 0.02
0.08 0.07 0.07 0.05 0.03 0.03 0.03 0.04 0.05 0.05 0.04 0.04 0.05 0.05 0.04 0.05 0.06 0.06 0.07 0.09 0.10 0.11 0.12 0.11 0.09 0.09 0.07 0.07 0.08 0.08 0.08 0.07 0.06 0.04 0.03 0.02 0.02 0.01
0.04 0.04 0.05 0.04 0.03 0.03 0.03 0.04 0.05 0.05 0.03 0.02 0.02 0.02 0.02 0.02 0.03 0.04 0.06 0.07 0.07 0.08 0.09 0.10 0.10 0.09 0.08 0.07 0.06 0.07 0.07 0.06 0.05 0.04 0.03 0.03 0.03 0.03
0.04 0.04 0.03 0.02 0.03 0.03 0.04 0.05 0.05 0.05 0.04 0.03 0.02 0.02 0.02 0.03 0.03 0.05 0.06 0.07 0.07 0.06 0.06 0.08 0.08 0.09 0.08 0.06 0.06 0.06 0.07 0.06 0.05 0.04 0.03 0.03 0.03 0.03
0.03 0.03 0.02 0.02 0.03 0.03 0.03 0.03 0.03 0.03 0.04 0.05 0.05 0.04 0.04 0.05 0.06 0.06 0.07 0.07 0.06 0.06 0.06 0.06 0.05 0.06 0.07 0.06 0.06 0.06 0.07 0.08 0.06 0.04 0.03 0.03 0.03 0.03
0.04 0.03 0.03 0.03 0.03 0.03 0.03 0.01 0.01 0.01 0.03 0.05 0.06 0.05 0.05 0.04 0.04 0.04 0.04 0.05 0.05 0.05 0.06 0.06 0.05 0.06 0.06 0.05 0.05 0.06 0.07 0.07 0.08 0.08 0.07 0.05 0.04 0.04
0.03 0.03 0.03 0.03 0.04 0.04 0.03 0.02 0.02 0.03 0.04 0.05 0.05 0.04 0.03 0.03 0.02 0.03 0.03 0.04 0.04 0.03 0.04 0.06 0.07 0.07 0.06 0.06 0.05 0.05 0.05 0.06 0.06 0.07 0.09 0.08 0.07 0.06
0.01 0.02 0.02 0.03 0.03 0.03 0.03 0.03 0.03 0.03 0.03 0.03 0.03 0.03 0.02 0.02 0.02 0.02 0.03 0.03 0.04 0.03 0.03 0.05 0.06 0.06 0.06 0.05 0.05 0.04 0.05 0.06 0.05 0.06 0.08 0.11 0.11 0.09
0.01 0.02 0.02 0.02 0.02 0.02 0.02 0.02 0.02 0.02 0.02 0.02 0.02 0.02 0.02 0.02 0.02 0.02 0.02 0.02 0.03 0.03 0.04 0.04 0.05 0.05 0.04 0.03 0.04 0.04 0.04 0.05 0.05 0.06 0.07 0.09 0.10 0.10
0.01 0.02 0.02 0.02 0.03 0.03 0.02 0.01 0.01 0.01 0.01 0.01 0.01 0.01 0.01 0.02 0.02 0.02 0.02 0.02 0.03 0.03 0.03 0.04 0.04 0.04 0.04 0.02 0.02 0.02 0.03 0.03 0.04 0.05 0.07 0.09 0.10 0.11
0.01 0.02 0.02 0.02 0.03 0.03 0.03 0.02 0.01 0.01 0.01 0.01 0.01 0.01 0.02 0.02 0.02 0.02 0.02 0.03 0.03 0.02 0.02 0.02 0.02 0.03 0.04 0.03 0.02 0.01 0.02 0.02 0.03 0.03 0.06 0.08 0.08 0.07
0.01 0.02 0.03 0.03 0.03 0.03 0.04 0.04 0.03 0.03 0.02 0.02 0.02 0.02 0.02 0.02 0.02 0.02 0.02 0.02 0.02 0.02 0.02 0.02 0.02 0.02 0.03 0.03 0.03 0.02 0.01 0.02 0.03 0.03 0.04 0.06 0.06 0.05
0.01 0.02 0.02 0.03 0.02 0.02 0.03 0.03 0.03 0.03 0.04 0.04 0.04 0.03 0.03 0.04 0.03 0.03 0.02 0.02 0.02 0.02 0.02 0.02 0.02 0.01 0.02 0.03 0.04 0.03 0.03 0.02 0.03 0.03 0.03 0.04 0.05 0.06
0.02 0.02 0.01 0.01 0.02 0.02 0.03 0.03 0.03 0.03 0.05 0.06 0.06 0.06 0.06 0.06 0.05 0.04 0.03 0.02 0.02 0.02 0.02 0.02 0.01 0.01 0.02 0.02 0.03 0.04 0.04 0.04 0.03 0.02 0.02 0.02 0.03 0.06
0.02 0.01 0.01 0.01 0.01 0.02 0.02 0.03 0.04 0.04 0.04 0.04 0.04 0.04 0.04 0.04 0.04 0.03 0.03 0.03 0.03 0.03 0.03 0.03 0.02 0.02 0.02 0.01 0.02 0.03 0.05 0.04 0.03 0.04 0.03 0.02 0.02 0.02

GEFSNE_prec_meanprec_210.txt.gz
QPF
0.07 0.06 0.06 0.04 0.03 0.02 0.02 0.02 0.02 0.02 0.02 0.02 0.03 0.02 0.03 0.04 0.03 0.03 0.02 0.02 0.02 0.02 0.02 0.02 0.02 0.03 0.03 0.04 0.04 0.04 0.05 0.05 0.06 0.06 0.07 0.07 0.06 0.06
0.07 0.06 0.05 0.05 0.03 0.02 0.03 0.03 0.02 0.03 0.02 0.03 0.03 0.02 0.03 0.04 0.04 0.04 0.03 0.02 0.03 0.02 0.02 0.02 0.03 0.03 0.03 0.02 0.02 0.03 0.03 0.04 0.04 0.04 0.04 0.04 0.05 0.05
0.08 0.06 0.06 0.05 0.04 0.04 0.04 0.03 0.04 0.04 0.03 0.03 0.02 0.02 0.03 0.04 0.03 0.04 0.04 0.03 0.02 0.02 0.02 0.02 0.02 0.03 0.04 0.03 0.02 0.02 0.02 0.02 0.03 0.03 0.03 0.03 0.04 0.04
0.09 0.07 0.06 0.07 0.06 0.05 0.05 0.04 0.03 0.03 0.03 0.02 0.02 0.03 0.05 0.04 0.03 0.03 0.04 0.03 0.02 0.02 0.02 0.02 0.02 0.02 0.03 0.04 0.04 0.04 0.03 0.02 0.02 0.03 0.03 0.03 0.03 0.04
0.05 0.05 0.06 0.07 0.06 0.05 0.05 0.04 0.03 0.03 0.02 0.02 0.02 0.03 0.03 0.03 0.04 0.04 0.04 0.04 0.04 0.03 0.02 0.02 0.02 0.02 0.02 0.03 0.04 0.04 0.04 0.03 0.03 0.03 0.04 0.03 0.03 0.04
0.05 0.05 0.03 0.04 0.05 0.04 0.03 0.03 0.02 0.02 0.02 0.02 0.02 0.03 0.03 0.03 0.04 0.05 0.06 0.05 0.05 0.05 0.05 0.04 0.03 0.03 0.03 0.03 0.04 0.05 0.05 0.06 0.05 0.05 0.06 0.05 0.04 0.04
0.03 0.03 0.02 0.03 0.03 0.03 0.03 0.02 0.02 0.02 0.02 0.02 0.03 0.04 0.03 0.03 0.04 0.04 0.06 0.07 0.06 0.06 0.07 0.05 0.04 0.04 0.04 0.04 0.04 0.05 0.06 0.07 0.08 0.07 0.08 0.08 0.08 0.06
0.02 0.03 0.02 0.02 0.02 0.03 0.02 0.02 0.02 0.02 0.02 0.03 0.03 0.03 0.02 0.03 0.03 0.03 0.05 0.06 0.07 0.07 0.08 0.09 0.07 0.06 0.06 0.05 0.05 0.05 0.05 0.05 0.06 0.07 0.07 0.08 0.09 0.08
0.02 0.03 0.03 0.02 0.02 0.02 0.02 0.02 0.02 0.02 0.02 0.02 0.02 0.03 0.03 0.03 0.03 0.03 0.03 0.04 0.05 0.07 0.09 0.10 0.11 0.08 0.06 0.05 0.05 0.05 0.04 0.04 0.04 0.04 0.06 0.07 0.08 0.08
0.04 0.04 0.04 0.03 0.02 0.01 0.01 0.01 0.02 0.02 0.03 0.03 0.03 0.03 0.04 0.03 0.02 0.02 0.03 0.04 0.04 0.05 0.07 0.09 0.09 0.09 0.06 0.03 0.03 0.03 0.03 0.03 0.03 0.04 0.04 0.05 0.06 0.07
0.07 0.05 0.03 0.03 0.02 0.01 0.01 0.01 0.01 0.01 0.02 0.02 0.02 0.03 0.03 0.03 0.03 0.03 0.03 0.04 0.04 0.05 0.06 0.07 0.09 0.08 0.07 0.05 0.03 0.02 0.02 0.02 0.02 0.03 0.03 0.04 0.04 0.05
0.05 0.03 0.02 0.02 0.01 0.01 0.01 0.01 0.01 0.01 0.01 0.01 0.01 0.01 0.02 0.03 0.03 0.04 0.03 0.03 0.03 0.04 0.05 0.07 0.08 0.09 0.08 0.06 0.04 0.03 0.02 0.03 0.03 0.04 0.03 0.04 0.03 0.03
0.03 0.02 0.02 0.02 0.01 0.01 0.01 0.02 0.02 0.01 0.01 0.01 0.01 0.01 0.01 0.02 0.02 0.04 0.04 0.04 0.04 0.05 0.06 0.07 0.08 0.07 0.07 0.07 0.05 0.03 0.02 0.02 0.03 0.04 0.05 0.05 0.05 0.04
0.01 0.01 0.01 0.01 0.01 0.01 0.01 0.02 0.02 0.02 0.02 0.02 0.02 0.01 0.02 0.02 0.01 0.01 0.02 0.03 0.04 0.04 0.04 0.05 0.06 0.06 0.06 0.06 0.05 0.04 0.03 0.03 0.03 0.04 0.05 0.06 0.06 0.07
0.02 0.02 0.01 0.01 0.00 0.01 0.01 0.01 0.02 0.02 0.02 0.02 0.02 0.01 0.01 0.02 0.01 0.01 0.01 0.01 0.02 0.02 0.03 0.03 0.04 0.04 0.05 0.06 0.05 0.03 0.02 0.02 0.04 0.05 0.06 0.05 0.06 0.07
0.01 0.01 0.01 0.02 0.01 0.01 0.01 0.01 0.02 0.02 0.02 0.01 0.01 0.01 0.01 0.01 0.01 0.01 0.01 0.01 0.01 0.01 0.01 0.02 0.03 0.04 0.04 0.05 0.04 0.03 0.02 0.02 0.03 0.02 0.02 0.03 0.03 0.03
0.01 0.01 0.01 0.01 0.01 0.01 0.01 0.01 0.01 0.01 0.01 0.01 0.01 0.01 0.01 0.02 0.01 0.01 0.02 0.01 0.01 0.02 0.02 0.02 0.02 0.03 0.04 0.03 0.03 0.02 0.01 0.01 0.01 0.01 0.02 0.02 0.03 0.03
0.01 0.01 0.01 0.01 0.01 0.01 0.01 0.01 0.01 0.01 0.01 0.01 0.01 0.02 0.02 0.02 0.01 0.01 0.01 0.01 0.01 0.01 0.01 0.01 0.02 0.03 0.05 0.03 0.02 0.01 0.01 0.01 0.01 0.01 0.01 0.01 0.01 0.02
0.01 0.01 0.01 0.01 0.01 0.02 0.02 0.02 0.03 0.02 0.02 0.01 0.01 0.01 0.01 0.01 0.01 0.01 0.01 0.02 0.02 0.01 0.01 0.01 0.01 0.01 0.04 0.04 0.01 0.01 0.01 0.01 0.01 0.01 0.01 0.01 0.01 0.01
0.01 0.01 0.01 0.01 0.02 0.03 0.03 0.02 0.02 0.03 0.03 0.03 0.02 0.02 0.01 0.01 0.01 0.01 0.01 0.01 0.01 0.01 0.01 0.01 0.01 0.01 0.02 0.02 0.01 0.01 0.01 0.01 0.01 0.00 0.00 0.00 0.01 0.01
0.01 0.01 0.02 0.02 0.03 0.03 0.03 0.02 0.01 0.02 0.02 0.02 0.03 0.04 0.03 0.02 0.02 0.01 0.01 0.01 0.01 0.01 0.01 0.01 0.01 0.01 0.00 0.00 0.00 0.01 0.01 0.01 0.01 0.01 0.00 0.00 0.01 0.01
0.01 0.02 0.02 0.02 0.02 0.02 0.02 0.02 0.02 0.01 0.01 0.01 0.01 0.02 0.02 0.02 0.02 0.02 0.02 0.02 0.03 0.02 0.02 0.02 0.02 0.01 0.01 0.00 0.01 0.01 0.01 0.01 0.01 0.01 0.01 0.01 0.01 0.01
0.02 0.02 0.02 0.01 0.01 0.02 0.02 0.02 0.01 0.00 0.01 0.00 0.01 0.01 0.01 0.02 0.02 0.02 0.01 0.01 0.02 0.02 0.01 0.01 0.01 0.02 0.02 0.01 0.01 0.01 0.01 0.01 0.02 0.02 0.01 0.01 0.01 0.01

GEFSNE_prec_meanprec_216.txt.gz
QPF
0.04 0.04 0.04 0.04 0.04 0.03 0.03 0.03 0.03 0.03 0.02 0.02 0.02 0.02 0.02 0.02 0.02 0.02 0.01 0.02 0.02 0.02 0.02 0.02 0.02 0.02 0.02 0.02 0.03 0.03 0.05 0.06 0.06 0.07 0.08 0.09 0.09 0.09
0.03 0.03 0.03 0.03 0.03 0.03 0.03 0.03 0.03 0.04 0.03 0.03 0.02 0.01 0.01 0.01 0.01 0.01 0.01 0.02 0.02 0.02 0.02 0.02 0.02 0.02 0.02 0.02 0.02 0.02 0.03 0.05 0.06 0.06 0.07 0.09 0.10 0.09
0.03 0.02 0.03 0.04 0.03 0.03 0.03 0.03 0.03 0.03 0.03 0.03 0.03 0.02 0.01 0.01 0.01 0.01 0.01 0.01 0.02 0.02 0.02 0.02 0.02 0.02 0.02 0.02 0.02 0.02 0.03 0.03 0.05 0.06 0.06 0.08 0.10 0.10
0.04 0.03 0.03 0.04 0.03 0.02 0.02 0.03 0.03 0.03 0.02 0.02 0.02 0.02 0.01 0.01 0.01 0.01 0.01 0.01 0.01 0.01 0.01 0.01 0.01 0.01 0.01 0.02 0.02 0.03 0.03 0.03 0.04 0.06 0.07 0.08 0.09 0.10
0.05 0.04 0.03 0.02 0.01 0.01 0.02 0.02 0.02 0.02 0.02 0.01 0.01 0.01 0.02 0.01 0.01 0.01 0.01 0.01 0.01 0.01 0.01 0.01 0.02 0.02 0.02 0.02 0.02 0.03 0.03 0.03 0.03 0.04 0.05 0.06 0.08 0.08
0.05 0.04 0.03 0.02 0.01 0.01 0.02 0.01 0.01 0.02 0.02 0.01 0.01 0.01 0.01 0.01 0.02 0.01 0.01 0.01 0.01 0.01 0.01 0.02 0.02 0.03 0.03 0.03 0.02 0.03 0.03 0.03 0.03 0.03 0.03 0.04 0.06 0.08
0.05 0.05 0.05 0.03 0.02 0.02 0.02 0.01 0.01 0.01 0.01 0.01 0.01 0.01 0.01 0.01 0.01 0.02 0.01 0.01 0.02 0.02 0.01 0.02 0.02 0.03 0.03 0.04 0.04 0.04 0.04 0.04 0.04 0.03 0.03 0.03 0.05 0.06
0.08 0.06 0.06 0.05 0.04 0.04 0.03 0.02 0.01 0.01 0.01 0.01 0.01 0.01 0.01 0.01 0.02 0.02 0.02 0.02 0.02 0.01 0.01 0.02 0.02 0.03 0.03 0.04 0.05 0.05 0.05 0.05 0.04 0.04 0.03 0.03 0.04 0.04
0.13 0.11 0.09 0.06 0.05 0.04 0.03 0.03 0.03 0.03 0.02 0.01 0.01 0.01 0.01 0.01 0.02 0.02 0.02 0.02 0.02 0.01 0.01 0.01 0.02 0.03 0.03 0.04 0.05 0.05 0.05 0.03 0.03 0.03 0.03 0.03 0.03 0.03
0.09 0.10 0.10 0.08 0.06 0.05 0.04 0.03 0.02 0.02 0.02 0.01 0.01 0.01 0.01 0.01 0.02 0.02 0.02 0.02 0.03 0.03 0.02 0.02 0.02 0.02 0.03 0.03 0.04 0.03 0.03 0.03 0.03 0.03 0.03 0.03 0.03 0.03
0.06 0.06 0.05 0.05 0.05 0.04 0.04 0.03 0.02 0.02 0.01 0.01 0.01 0.01 0.02 0.03 0.02 0.02 0.02 0.02 0.02 0.04 0.03 0.03 0.02 0.02 0.03 0.04 0.04 0.03 0.03 0.03 0.03 0.03 0.03 0.03 0.03 0.03
0.05 0.06 0.06 0.06 0.04 0.03 0.02 0.02 0.02 0.02 0.02 0.02 0.01 0.01 0.01 0.02 0.02 0.02 0.01 0.02 0.02 0.03 0.03 0.03 0.02 0.02 0.04 0.04 0.04 0.03 0.02 0.02 0.02 0.02 0.03 0.03 0.03 0.03
0.04 0.05 0.05 0.04 0.03 0.02 0.02 0.02 0.02 0.01 0.01 0.01 0.02 0.02 0.02 0.02 0.03 0.01 0.01 0.02 0.02 0.03 0.03 0.03 0.03 0.02 0.03 0.04 0.05 0.04 0.02 0.02 0.01 0.02 0.02 0.03 0.03 0.03
0.03 0.04 0.04 0.03 0.02 0.02 0.02 0.02 0.01 0.01 0.01 0.01 0.02 0.02 0.01 0.02 0.02 0.02 0.01 0.02 0.03 0.04 0.04 0.04 0.04 0.03 0.02 0.03 0.05 0.06 0.04 0.02 0.01 0.01 0.02 0.02 0.03 0.03
0.01 0.03 0.03 0.02 0.02 0.02 0.02 0.02 0.02 0.02 0.02 0.02 0.02 0.01 0.01 0.02 0.02 0.02 0.01 0.01 0.02 0.03 0.05 0.05 0.04 0.04 0.04 0.04 0.04 0.05 0.05 0.04 0.02 0.01 0.01 0.01 0.01 0.02
0.02 0.03 0.02 0.02 0.02 0.01 0.01 0.02 0.02 0.04 0.04 0.03 0.02 0.03 0.02 0.02 0.02 0.02 0.02 0.02 0.02 0.02 0.03 0.04 0.05 0.04 0.04 0.04 0.05 0.05 0.05 0.05 0.04 0.02 0.02 0.01 0.02 0.02
0.04 0.03 0.02 0.02 0.02 0.01 0.01 0.01 0.02 0.03 0.03 0.03 0.03 0.03 0.02 0.02 0.03 0.03 0.04 0.03 0.02 0.02 0.02 0.04 0.05 0.04 0.04 0.05 0.06 0.06 0.05 0.05 0.05 0.04 0.02 0.02 0.02 0.02
0.04 0.03 0.03 0.02 0.01 0.01 0.01 0.01 0.01 0.03 0.03 0.03 0.03 0.03 0.03 0.03 0.03 0.04 0.04 0.03 0.03 0.02 0.03 0.04 0.05 0.05 0.05 0.04 0.05 0.04 0.04 0.04 0.05 0.04 0.03 0.02 0.02 0.02
0.04 0.03 0.03 0.02 0.02 0.01 0.01 0.01 0.02 0.03 0.02 0.02 0.02 0.03 0.03 0.03 0.03 0.03 0.05 0.05 0.04 0.03 0.03 0.04 0.04 0.05 0.04 0.04 0.04 0.04 0.04 0.03 0.03 0.03 0.03 0.02 0.02 0.02
0.05 0.04 0.03 0.03 0.03 0.03 0.03 0.02 0.02 0.01 0.01 0.01 0.02 0.02 0.03 0.04 0.04 0.04 0.05 0.05 0.04 0.04 0.04 0.03 0.03 0.03 0.03 0.04 0.04 0.03 0.03 0.02 0.02 0.02 0.02 0.02 0.02 0.02
0.04 0.04 0.03 0.03 0.04 0.04 0.04 0.04 0.03 0.02 0.02 0.03 0.03 0.03 0.03 0.03 0.03 0.03 0.02 0.03 0.04 0.04 0.04 0.03 0.02 0.02 0.03 0.03 0.02 0.02 0.02 0.02 0.02 0.01 0.01 0.02 0.03 0.02
0.02 0.03 0.04 0.04 0.04 0.04 0.04 0.04 0.04 0.04 0.03 0.03 0.03 0.03 0.03 0.03 0.02 0.02 0.02 0.02 0.03 0.03 0.03 0.03 0.03 0.03 0.03 0.02 0.02 0.02 0.02 0.01 0.01 0.01 0.01 0.01 0.01 0.01
0.02 0.03 0.03 0.03 0.03 0.04 0.04 0.04 0.04 0.04 0.03 0.03 0.03 0.03 0.03 0.02 0.02 0.02 0.01 0.01 0.01 0.02 0.03 0.03 0.03 0.03 0.02 0.02 0.01 0.01 0.02 0.01 0.00 0.01 0.01 0.01 0.01 0.01

GEFSNE_prec_meanprec_222.txt.gz
QPF
0.05 0.06 0.05 0.05 0.04 0.05 0.05 0.05 0.06 0.05 0.04 0.03 0.02 0.03 0.03 0.03 0.03 0.02 0.02 0.02 0.01 0.02 0.02 0.02 0.02 0.03 0.03 0.03 0.03 0.02 0.02 0.03 0.03 0.03 0.03 0.04 0.05 0.05
0.06 0.05 0.06 0.06 0.05 0.05 0.04 0.05 0.06 0.05 0.04 0.03 0.02 0.02 0.02 0.02 0.03 0.03 0.03 0.03 0.02 0.02 0.02 0.02 0.02 0.02 0.03 0.03 0.03 0.02 0.02 0.02 0.02 0.02 0.02 0.03 0.04 0.05
0.06 0.05 0.06 0.07 0.07 0.05 0.05 0.05 0.05 0.05 0.05 0.04 0.03 0.02 0.02 0.03 0.03 0.04 0.04 0.04 0.03 0.02 0.02 0.02 0.02 0.02 0.02 0.02 0.02 0.02 0.02 0.02 0.02 0.02 0.03 0.03 0.04 0.06
0.07 0.06 0.07 0.07 0.07 0.06 0.05 0.05 0.05 0.05 0.05 0.05 0.04 0.03 0.02 0.03 0.03 0.03 0.03 0.03 0.02 0.02 0.02 0.02 0.02 0.01 0.01 0.01 0.01 0.01 0.02 0.02 0.02 0.03 0.03 0.03 0.04 0.05
0.09 0.08 0.07 0.08 0.07 0.06 0.05 0.04 0.04 0.04 0.05 0.06 0.05 0.03 0.03 0.03 0.04 0.03 0.02 0.03 0.02 0.02 0.02 0.02 0.01 0.01 0.01 0.01 0.01 0.01 0.01 0.02 0.02 0.03 0.05 0.05 0.05 0.04
0.07 0.06 0.06 0.06 0.07 0.06 0.06 0.06 0.06 0.06 0.05 0.05 0.04 0.04 0.04 0.05 0.04 0.03 0.03 0.03 0.03 0.02 0.02 0.02 0.02 0.02 0.02 0.02 0.01 0.01 0.01 0.02 0.02 0.02 0.04 0.05 0.06 0.05
0.09 0.09 0.08 0.08 0.07 0.07 0.07 0.06 0.06 0.06 0.05 0.05 0.04 0.04 0.04 0.05 0.04 0.03 0.03 0.03 0.03 0.02 0.02 0.02 0.02 0.03 0.03 0.02 0.01 0.01 0.01 0.03 0.03 0.04 0.05 0.05 0.05 0.06
0.08 0.09 0.10 0.12 0.11 0.08 0.07 0.07 0.06 0.05 0.04 0.04 0.04 0.04 0.04 0.04 0.05 0.04 0.03 0.04 0.03 0.03 0.03 0.03 0.03 0.03 0.03 0.02 0.01 0.01 0.01 0.02 0.03 0.04 0.05 0.05 0.05 0.05
0.05 0.07 0.08 0.09 0.10 0.09 0.08 0.07 0.06 0.05 0.05 0.05 0.04 0.05 0.04 0.03 0.05 0.04 0.05 0.05 0.04 0.02 0.03 0.03 0.03 0.03 0.02 0.02 0.01 0.01 0.01 0.02 0.02 0.03 0.02 0.02 0.03 0.03
0.03 0.04 0.05 0.08 0.11 0.12 0.12 0.10 0.08 0.07 0.06 0.06 0.05 0.05 0.05 0.04 0.04 0.04 0.04 0.04 0.03 0.03 0.02 0.03 0.03 0.03 0.03 0.02 0.01 0.01 0.01 0.01 0.01 0.01 0.01 0.02 0.03 0.04
0.04 0.04 0.05 0.05 0.06 0.09 0.11 0.13 0.13 0.10 0.07 0.06 0.05 0.04 0.04 0.03 0.03 0.03 0.03 0.04 0.05 0.04 0.04 0.04 0.04 0.03 0.03 0.03 0.01 0.01 0.01 0.01 0.01 0.01 0.01 0.02 0.03 0.04
0.04 0.04 0.04 0.05 0.04 0.04 0.06 0.09 0.12 0.14 0.13 0.09 0.06 0.05 0.05 0.04 0.03 0.04 0.04 0.05 0.06 0.06 0.04 0.04 0.04 0.04 0.04 0.03 0.02 0.02 0.02 0.01 0.01 0.01 0.01 0.02 0.03 0.05
0.03 0.04 0.05 0.04 0.04 0.03 0.04 0.06 0.08 0.08 0.10 0.12 0.10 0.07 0.06 0.05 0.05 0.04 0.05 0.06 0.07 0.07 0.04 0.04 0.05 0.05 0.04 0.04 0.04 0.03 0.03 0.02 0.02 0.01 0.01 0.01 0.02 0.03
0.03 0.05 0.05 0.04 0.03 0.03 0.03 0.04 0.05 0.06 0.08 0.09 0.11 0.11 0.08 0.06 0.05 0.05 0.05 0.06 0.06 0.06 0.05 0.04 0.04 0.05 0.04 0.03 0.04 0.04 0.04 0.04 0.03 0.02 0.02 0.02 0.02 0.02
0.03 0.03 0.03 0.03 0.03 0.03 0.04 0.05 0.05 0.05 0.07 0.08 0.08 0.09 0.09 0.08 0.08 0.07 0.06 0.06 0.05 0.04 0.05 0.05 0.05 0.05 0.05 0.05 0.05 0.05 0.05 0.04 0.04 0.04 0.03 0.03 0.03 0.03
0.02 0.02 0.02 0.03 0.03 0.03 0.04 0.04 0.04 0.06 0.07 0.06 0.06 0.06 0.06 0.07 0.08 0.08 0.06 0.05 0.05 0.05 0.05 0.06 0.06 0.06 0.06 0.06 0.06 0.05 0.06 0.05 0.04 0.05 0.04 0.03 0.03 0.03
0.03 0.03 0.03 0.03 0.03 0.03 0.03 0.03 0.04 0.04 0.04 0.04 0.04 0.04 0.05 0.05 0.05 0.05 0.05 0.05 0.04 0.04 0.06 0.07 0.08 0.08 0.07 0.07 0.07 0.06 0.06 0.06 0.05 0.05 0.05 0.05 0.04 0.04
0.02 0.03 0.03 0.03 0.04 0.03 0.03 0.03 0.03 0.04 0.04 0.03 0.02 0.02 0.03 0.04 0.04 0.04 0.04 0.04 0.04 0.05 0.07 0.09 0.09 0.09 0.09 0.08 0.07 0.07 0.05 0.06 0.06 0.05 0.05 0.05 0.06 0.05
0.02 0.02 0.03 0.04 0.04 0.03 0.03 0.03 0.03 0.03 0.03 0.03 0.02 0.02 0.03 0.03 0.04 0.04 0.04 0.04 0.04 0.06 0.07 0.09 0.10 0.11 0.11 0.09 0.06 0.05 0.05 0.04 0.05 0.05 0.05 0.05 0.06 0.06
0.02 0.03 0.03 0.04 0.04 0.03 0.03 0.04 0.04 0.03 0.03 0.03 0.03 0.03 0.04 0.05 0.05 0.04 0.04 0.05 0.05 0.07 0.07 0.08 0.08 0.09 0.09 0.08 0.07 0.05 0.04 0.04 0.04 0.04 0.05 0.05 0.05 0.05
0.03 0.03 0.04 0.05 0.04 0.02 0.02 0.03 0.05 0.05 0.04 0.03 0.04 0.04 0.05 0.05 0.06 0.05 0.06 0.06 0.07 0.08 0.08 0.07 0.07 0.07 0.07 0.07 0.07 0.07 0.06 0.05 0.05 0.04 0.03 0.03 0.04 0.04
0.03 0.04 0.05 0.05 0.04 0.02 0.02 0.02 0.04 0.05 0.05 0.04 0.04 0.04 0.05 0.04 0.05 0.06 0.08 0.08 0.08 0.08 0.08 0.07 0.06 0.06 0.07 0.08 0.06 0.05 0.06 0.05 0.05 0.03 0.02 0.02 0.02 0.03
0.04 0.04 0.05 0.05 0.02 0.01 0.01 0.02 0.03 0.04 0.05 0.05 0.04 0.04 0.04 0.04 0.04 0.05 0.06 0.08 0.09 0.08 0.07 0.08 0.08 0.07 0.06 0.06 0.04 0.05 0.05 0.04 0.03 0.03 0.03 0.02 0.01 0.02

GEFSNE_prec_meanprec_228.txt.gz
QPF
0.10 0.11 0.09 0.08 0.08 0.07 0.07 0.08 0.08 0.08 0.08 0.07 0.06 0.03 0.01 0.01 0.02 0.03 0.04 0.03 0.02 0.01 0.01 0.01 0.01 0.01 0.01 0.02 0.03 0.03 0.02 0.02 0.02 0.02 0.02 0.02 0.02 0.02
0.10 0.12 0.11 0.08 0.07 0.07 0.08 0.09 0.09 0.09 0.08 0.06 0.04 0.02 0.03 0.02 0.02 0.02 0.04 0.04 0.03 0.02 0.01 0.01 0.01 0.01 0.01 0.02 0.02 0.02 0.02 0.02 0.02 0.02 0.02 0.02 0.01 0.02
0.10 0.11 0.11 0.09 0.08 0.07 0.08 0.10 0.11 0.11 0.10 0.08 0.07 0.05 0.05 0.04 0.04 0.04 0.04 0.04 0.04 0.02 0.02 0.01 0.01 0.01 0.01 0.01 0.01 0.02 0.02 0.02 0.02 0.02 0.02 0.02 0.02 0.02
0.08 0.08 0.08 0.08 0.09 0.09 0.10 0.12 0.14 0.14 0.12 0.10 0.08 0.07 0.05 0.05 0.06 0.05 0.04 0.04 0.03 0.02 0.02 0.02 0.02 0.02 0.01 0.01 0.02 0.02 0.02 0.02 0.01 0.01 0.02 0.02 0.02 0.02
0.06 0.05 0.06 0.06 0.07 0.08 0.09 0.09 0.10 0.11 0.12 0.11 0.10 0.10 0.08 0.07 0.07 0.07 0.06 0.06 0.03 0.02 0.02 0.02 0.03 0.02 0.02 0.02 0.02 0.02 0.02 0.02 0.02 0.01 0.01 0.02 0.02 0.02
0.07 0.06 0.07 0.08 0.08 0.08 0.09 0.09 0.10 0.12 0.13 0.11 0.10 0.09 0.09 0.09 0.09 0.08 0.06 0.05 0.04 0.02 0.02 0.02 0.03 0.03 0.02 0.02 0.02 0.03 0.02 0.02 0.01 0.01 0.01 0.01 0.02 0.03
0.07 0.07 0.06 0.07 0.09 0.09 0.08 0.09 0.11 0.13 0.13 0.12 0.10 0.09 0.08 0.09 0.09 0.08 0.07 0.06 0.05 0.03 0.02 0.02 0.02 0.03 0.03 0.03 0.03 0.03 0.02 0.01 0.01 0.01 0.01 0.01 0.01 0.03
0.05 0.06 0.05 0.05 0.05 0.06 0.05 0.08 0.11 0.11 0.12 0.11 0.09 0.08 0.08 0.07 0.07 0.08 0.08 0.08 0.07 0.05 0.05 0.03 0.02 0.03 0.03 0.02 0.03 0.02 0.01 0.01 0.01 0.01 0.01 0.01 0.02 0.03
0.04 0.04 0.04 0.03 0.04 0.06 0.06 0.06 0.07 0.10 0.12 0.12 0.11 0.09 0.09 0.07 0.09 0.09 0.09 0.09 0.07 0.05 0.05 0.05 0.04 0.04 0.03 0.03 0.03 0.02 0.01 0.01 0.01 0.01 0.01 0.02 0.02 0.02
0.04 0.04 0.04 0.03 0.04 0.07 0.09 0.08 0.09 0.08 0.08 0.09 0.11 0.10 0.10 0.10 0.10 0.09 0.09 0.09 0.07 0.05 0.05 0.05 0.05 0.05 0.03 0.03 0.03 0.02 0.02 0.01 0.01 0.01 0.01 0.01 0.01 0.01
0.05 0.04 0.05 0.04 0.04 0.06 0.08 0.09 0.08 0.06 0.05 0.05 0.06 0.08 0.08 0.09 0.11 0.11 0.10 0.10 0.09 0.07 0.07 0.06 0.06 0.05 0.04 0.04 0.03 0.02 0.02 0.01 0.01 0.01 0.01 0.01 0.01 0.01
0.06 0.06 0.06 0.05 0.05 0.04 0.05 0.05 0.05 0.05 0.05 0.05 0.05 0.04 0.04 0.05 0.08 0.11 0.11 0.10 0.08 0.08 0.07 0.06 0.05 0.05 0.05 0.04 0.03 0.02 0.02 0.01 0.01 0.01 0.01 0.01 0.01 0.01
0.05 0.05 0.06 0.05 0.04 0.03 0.04 0.05 0.05 0.05 0.05 0.06 0.08 0.07 0.07 0.08 0.08 0.09 0.12 0.11 0.09 0.07 0.05 0.06 0.05 0.04 0.05 0.04 0.03 0.02 0.02 0.02 0.01 0.01 0.01 0.02 0.01 0.01
0.04 0.04 0.03 0.03 0.03 0.03 0.03 0.04 0.05 0.05 0.05 0.05 0.07 0.09 0.11 0.10 0.08 0.07 0.08 0.10 0.08 0.07 0.05 0.05 0.05 0.05 0.04 0.04 0.03 0.03 0.03 0.03 0.03 0.02 0.02 0.02 0.02 0.01
0.04 0.03 0.03 0.03 0.03 0.03 0.04 0.04 0.03 0.04 0.06 0.06 0.07 0.09 0.09 0.10 0.10 0.09 0.08 0.09 0.09 0.08 0.07 0.06 0.05 0.05 0.04 0.03 0.03 0.02 0.03 0.04 0.04 0.03 0.02 0.02 0.02 0.02
0.05 0.04 0.03 0.03 0.03 0.05 0.04 0.03 0.03 0.04 0.05 0.06 0.06 0.07 0.08 0.10 0.11 0.11 0.09 0.09 0.09 0.08 0.08 0.07 0.06 0.06 0.05 0.04 0.03 0.03 0.03 0.04 0.04 0.04 0.03 0.03 0.03 0.03
0.04 0.03 0.04 0.05 0.05 0.05 0.05 0.05 0.05 0.05 0.04 0.04 0.05 0.06 0.08 0.10 0.11 0.10 0.10 0.10 0.10 0.09 0.09 0.09 0.07 0.07 0.07 0.06 0.05 0.05 0.05 0.04 0.03 0.03 0.03 0.04 0.05 0.05
0.04 0.04 0.05 0.05 0.05 0.05 0.05 0.05 0.05 0.05 0.05 0.04 0.05 0.05 0.06 0.08 0.09 0.09 0.09 0.09 0.09 0.10 0.09 0.09 0.09 0.11 0.12 0.10 0.08 0.08 0.07 0.05 0.04 0.03 0.04 0.04 0.05 0.07
0.03 0.04 0.04 0.05 0.05 0.05 0.04 0.04 0.04 0.04 0.05 0.05 0.05 0.05 0.05 0.05 0.06 0.07 0.08 0.08 0.08 0.08 0.09 0.09 0.09 0.10 0.12 0.10 0.07 0.07 0.07 0.06 0.05 0.04 0.04 0.05 0.05 0.06
0.03 0.04 0.04 0.05 0.04 0.04 0.04 0.05 0.04 0.04 0.05 0.05 0.05 0.05 0.05 0.04 0.05 0.06 0.07 0.07 0.07 0.08 0.09 0.10 0.10 0.11 0.10 0.08 0.06 0.04 0.03 0.04 0.04 0.04 0.04 0.05 0.05 0.04
0.05 0.04 0.04 0.03 0.04 0.05 0.05 0.05 0.05 0.04 0.05 0.05 0.04 0.05 0.06 0.06 0.05 0.06 0.06 0.06 0.07 0.06 0.07 0.09 0.11 0.12 0.12 0.11 0.09 0.05 0.02 0.02 0.03 0.04 0.05 0.04 0.04 0.03
0.04 0.04 0.03 0.04 0.06 0.05 0.03 0.04 0.04 0.04 0.05 0.05 0.05 0.05 0.06 0.07 0.07 0.06 0.06 0.06 0.06 0.06 0.07 0.08 0.09 0.11 0.12 0.12 0.10 0.06 0.04 0.02 0.02 0.03 0.05 0.05 0.04 0.03
0.05 0.05 0.05 0.06 0.05 0.03 0.03 0.03 0.04 0.04 0.05 0.05 0.06 0.07 0.06 0.07 0.07 0.05 0.05 0.05 0.06 0.07 0.07 0.07 0.09 0.10 0.10 0.10 0.09 0.07 0.05 0.03 0.02 0.03 0.04 0.03 0.03 0.02

GEFSNE_prec_meanprec_234.txt.gz
QPF
0.05 0.06 0.06 0.05 0.05 0.06 0.08 0.09 0.07 0.06 0.05 0.04 0.05 0.05 0.04 0.02 0.01 0.02 0.02 0.02 0.02 0.02 0.01 0.01 0.01 0.00 0.00 0.00 0.01 0.01 0.01 0.01 0.02 0.02 0.02 0.02 0.02 0.02
0.06 0.07 0.08 0.08 0.09 0.10 0.10 0.11 0.09 0.07 0.06 0.04 0.03 0.03 0.04 0.03 0.02 0.02 0.02 0.02 0.02 0.02 0.02 0.01 0.01 0.00 0.00 0.00 0.00 0.01 0.01 0.01 0.02 0.02 0.02 0.02 0.02 0.02
0.08 0.08 0.10 0.09 0.09 0.09 0.09 0.09 0.07 0.07 0.06 0.05 0.04 0.05 0.05 0.05 0.04 0.02 0.01 0.01 0.01 0.01 0.02 0.01 0.01 0.01 0.00 0.00 0.00 0.00 0.01 0.01 0.02 0.02 0.02 0.02 0.02 0.02
0.11 0.12 0.13 0.11 0.08 0.08 0.08 0.06 0.04 0.04 0.04 0.05 0.05 0.06 0.07 0.06 0.06 0.05 0.03 0.02 0.01 0.01 0.01 0.02 0.01 0.01 0.01 0.00 0.00 0.00 0.01 0.01 0.02 0.02 0.02 0.03 0.03 0.02
0.12 0.10 0.10 0.07 0.06 0.05 0.06 0.04 0.03 0.04 0.03 0.04 0.05 0.06 0.08 0.08 0.07 0.07 0.05 0.03 0.02 0.01 0.01 0.01 0.02 0.02 0.01 0.01 0.01 0.01 0.01 0.01 0.01 0.02 0.02 0.02 0.02 0.02
0.06 0.06 0.05 0.03 0.03 0.03 0.04 0.03 0.03 0.04 0.04 0.04 0.04 0.06 0.06 0.07 0.09 0.08 0.07 0.06 0.04 0.02 0.02 0.01 0.01 0.02 0.02 0.02 0.01 0.01 0.01 0.01 0.01 0.02 0.02 0.02 0.02 0.02
0.05 0.05 0.04 0.03 0.03 0.03 0.03 0.03 0.03 0.04 0.04 0.03 0.04 0.06 0.06 0.07 0.07 0.07 0.06 0.06 0.06 0.05 0.04 0.03 0.02 0.02 0.02 0.02 0.02 0.01 0.01 0.01 0.01 0.02 0.02 0.03 0.02 0.02
0.05 0.03 0.02 0.03 0.03 0.04 0.03 0.04 0.04 0.04 0.03 0.03 0.04 0.05 0.07 0.08 0.07 0.07 0.08 0.08 0.07 0.06 0.05 0.04 0.03 0.02 0.02 0.02 0.02 0.01 0.02 0.02 0.02 0.03 0.03 0.03 0.03 0.03
0.03 0.01 0.01 0.01 0.03 0.03 0.04 0.05 0.06 0.05 0.04 0.04 0.04 0.05 0.08 0.09 0.10 0.09 0.08 0.08 0.07 0.06 0.05 0.04 0.03 0.03 0.02 0.03 0.03 0.03 0.03 0.03 0.03 0.04 0.04 0.04 0.04 0.03
0.02 0.01 0.01 0.01 0.02 0.04 0.03 0.03 0.04 0.04 0.04 0.04 0.04 0.05 0.07 0.09 0.10 0.09 0.10 0.10 0.10 0.08 0.06 0.05 0.04 0.03 0.03 0.04 0.04 0.03 0.03 0.03 0.03 0.03 0.03 0.04 0.05 0.04
0.01 0.01 0.01 0.02 0.03 0.03 0.04 0.04 0.04 0.03 0.03 0.03 0.04 0.05 0.07 0.08 0.10 0.11 0.10 0.10 0.09 0.08 0.07 0.05 0.04 0.04 0.04 0.04 0.05 0.04 0.03 0.03 0.03 0.03 0.03 0.03 0.04 0.04
0.01 0.02 0.02 0.03 0.03 0.04 0.04 0.03 0.03 0.02 0.02 0.03 0.03 0.05 0.05 0.06 0.08 0.09 0.08 0.08 0.07 0.06 0.05 0.04 0.04 0.04 0.05 0.05 0.04 0.04 0.03 0.03 0.03 0.03 0.03 0.02 0.02 0.03
0.02 0.02 0.03 0.03 0.03 0.03 0.03 0.02 0.03 0.02 0.01 0.01 0.02 0.03 0.03 0.04 0.06 0.07 0.08 0.09 0.07 0.06 0.04 0.03 0.03 0.04 0.06 0.05 0.03 0.03 0.02 0.02 0.02 0.02 0.02 0.02 0.02 0.02
0.02 0.02 0.03 0.03 0.03 0.03 0.03 0.03 0.03 0.02 0.01 0.01 0.02 0.03 0.03 0.03 0.05 0.07 0.07 0.09 0.08 0.07 0.04 0.03 0.03 0.04 0.04 0.03 0.03 0.02 0.01 0.02 0.02 0.02 0.02 0.02 0.02 0.02
0.03 0.05 0.04 0.04 0.04 0.04 0.04 0.03 0.02 0.02 0.02 0.02 0.02 0.03 0.03 0.04 0.06 0.06 0.08 0.08 0.08 0.07 0.06 0.05 0.04 0.05 0.04 0.03 0.03 0.02 0.02 0.01 0.01 0.02 0.02 0.02 0.01 0.01
0.04 0.04 0.04 0.04 0.04 0.04 0.04 0.02 0.02 0.03 0.03 0.03 0.03 0.03 0.03 0.05 0.06 0.05 0.06 0.06 0.07 0.08 0.06 0.05 0.04 0.05 0.04 0.03 0.03 0.02 0.02 0.01 0.02 0.02 0.02 0.02 0.02 0.01
0.04 0.04 0.04 0.05 0.05 0.05 0.04 0.03 0.03 0.05 0.04 0.03 0.03 0.02 0.03 0.04 0.04 0.05 0.05 0.06 0.06 0.07 0.07 0.06 0.06 0.06 0.05 0.04 0.03 0.02 0.02 0.03 0.02 0.02 0.02 0.03 0.03 0.02
0.04 0.03 0.05 0.05 0.05 0.03 0.02 0.02 0.02 0.02 0.02 0.03 0.02 0.02 0.02 0.02 0.03 0.04 0.05 0.06 0.06 0.06 0.07 0.07 0.06 0.07 0.08 0.08 0.06 0.04 0.03 0.03 0.03 0.03 0.02 0.02 0.02 0.03
0.02 0.02 0.03 0.03 0.04 0.02 0.02 0.02 0.02 0.02 0.02 0.03 0.03 0.02 0.03 0.03 0.04 0.04 0.04 0.05 0.05 0.05 0.07 0.09 0.07 0.07 0.08 0.07 0.06 0.04 0.04 0.03 0.03 0.03 0.03 0.02 0.02 0.03
0.03 0.03 0.03 0.04 0.04 0.03 0.03 0.03 0.04 0.04 0.03 0.03 0.03 0.03 0.03 0.03 0.04 0.04 0.04 0.05 0.06 0.07 0.08 0.10 0.10 0.07 0.07 0.06 0.04 0.04 0.03 0.03 0.03 0.03 0.02 0.02 0.03 0.04
0.04 0.03 0.03 0.03 0.03 0.04 0.05 0.05 0.04 0.03 0.02 0.02 0.02 0.02 0.03 0.03 0.04 0.05 0.06 0.07 0.08 0.08 0.09 0.10 0.12 0.11 0.09 0.08 0.07 0.05 0.04 0.04 0.03 0.02 0.01 0.01 0.02 0.03
0.04 0.03 0.03 0.05 0.03 0.04 0.05 0.04 0.04 0.03 0.02 0.02 0.02 0.03 0.04 0.04 0.04 0.04 0.05 0.07 0.09 0.10 0.09 0.09 0.10 0.10 0.09 0.11 0.10 0.06 0.05 0.04 0.03 0.02 0.02 0.02 0.02 0.02
0.04 0.03 0.03 0.06 0.04 0.03 0.05 0.04 0.04 0.04 0.03 0.03 0.04 0.04 0.04 0.04 0.04 0.04 0.05 0.06 0.07 0.07 0.07 0.08 0.09 0.09 0.09 0.09 0.11 0.08 0.05 0.04 0.02 0.02 0.02 0.02 0.02 0.02